| time (UTC) | temp C | wind direction | speed KPH | gust KPH | rain 1hr cm | rain 24hr cm | rain mn cm | humidity % | barometer mb |
| 20260503070408 | 12 | 207 | 0.0 | 3.2 | 0.00 | 0.00 | 0.00 | 61 | 1014.4 |
| 20260503070314 | 12 | 206 | 0.0 | 3.2 | 0.00 | 0.00 | 0.00 | 61 | 1014.4 |
| 20260503070210 | 12 | 207 | 0.0 | 3.2 | 0.00 | 0.00 | 0.00 | 62 | 1014.4 |
| 20260503070121 | 12 | 207 | 0.0 | 3.2 | 0.00 | 0.00 | 0.00 | 61 | 1014.4 |
| 20260503060320 | 14 | 268 | 0.0 | 1.6 | 0.00 | 0.00 | 0.00 | 52 | 1014.0 |
| 20260503060210 | 14 | 268 | 0.0 | 1.6 | 0.00 | 0.00 | 0.00 | 52 | 1014.0 |
| 20260503060127 | 14 | 268 | 0.0 | 1.6 | 0.00 | 0.00 | 0.00 | 52 | 1014.0 |
| 20260503055009 | 15 | 239 | 0.0 | 8.0 | 0.00 | 0.00 | 0.00 | 52 | 1013.9 |
| 20260503054918 | 15 | 239 | 1.6 | 8.0 | 0.00 | 0.00 | 0.00 | 51 | 1013.9 |
| 20260503054812 | 15 | 239 | 3.2 | 8.0 | 0.00 | 0.00 | 0.00 | 51 | 1014.0 |
| 20260503054717 | 15 | 241 | 3.2 | 8.0 | 0.00 | 0.00 | 0.00 | 51 | 1013.9 |
| 20260503054640 | 15 | 247 | 3.2 | 8.0 | 0.00 | 0.00 | 0.00 | 51 | 1013.9 |
| 20260503054534 | 15 | 231 | 3.2 | 6.4 | 0.00 | 0.00 | 0.00 | 51 | 1013.9 |
| 20260503054421 | 15 | 242 | 1.6 | 6.4 | 0.00 | 0.00 | 0.00 | 51 | 1013.9 |
| 20260503054322 | 15 | 237 | 3.2 | 6.4 | 0.00 | 0.00 | 0.00 | 51 | 1013.9 |
| 20260503054217 | 15 | 237 | 1.6 | 4.8 | 0.00 | 0.00 | 0.00 | 51 | 1013.9 |
| 20260503054126 | 15 | 239 | 1.6 | 4.8 | 0.00 | 0.00 | 0.00 | 52 | 1013.9 |
| 20260503054021 | 15 | 237 | 1.6 | 4.8 | 0.00 | 0.00 | 0.00 | 51 | 1013.9 |
| 20260503053933 | 15 | 243 | 1.6 | 4.8 | 0.00 | 0.00 | 0.00 | 51 | 1013.9 |
| 20260503053839 | 15 | 239 | 1.6 | 4.8 | 0.00 | 0.00 | 0.00 | 51 | 1013.9 |
| 20260503053709 | 15 | 237 | 1.6 | 4.8 | 0.00 | 0.00 | 0.00 | 51 | 1013.9 |
| 20260503053620 | 15 | 237 | 1.6 | 4.8 | 0.00 | 0.00 | 0.00 | 51 | 1013.9 |
| 20260503053526 | 15 | 241 | 1.6 | 4.8 | 0.00 | 0.00 | 0.00 | 50 | 1013.9 |
| 20260503053417 | 15 | 253 | 1.6 | 6.4 | 0.00 | 0.00 | 0.00 | 50 | 1013.9 |
| 20260503053344 | 15 | 235 | 1.6 | 6.4 | 0.00 | 0.00 | 0.00 | 51 | 1013.9 |
| 20260503053209 | 15 | 237 | 0.0 | 6.4 | 0.00 | 0.00 | 0.00 | 50 | 1013.9 |
| 20260503053129 | 15 | 237 | 1.6 | 6.4 | 0.00 | 0.00 | 0.00 | 50 | 1013.9 |
| 20260503053027 | 15 | 237 | 1.6 | 6.4 | 0.00 | 0.00 | 0.00 | 50 | 1013.9 |
| 20260503052913 | 15 | 238 | 3.2 | 6.4 | 0.00 | 0.00 | 0.00 | 50 | 1013.9 |
| 20260503052826 | 15 | 238 | 1.6 | 6.4 | 0.00 | 0.00 | 0.00 | 51 | 1013.9 |
| 20260503052711 | 15 | 245 | 3.2 | 6.4 | 0.00 | 0.00 | 0.00 | 51 | 1013.9 |
| 20260503052626 | 15 | 237 | 3.2 | 6.4 | 0.00 | 0.00 | 0.00 | 50 | 1013.9 |
| 20260503052533 | 15 | 247 | 1.6 | 6.4 | 0.00 | 0.00 | 0.00 | 50 | 1013.9 |
| 20260503052418 | 15 | 247 | 3.2 | 6.4 | 0.00 | 0.00 | 0.00 | 50 | 1013.9 |
| 20260503052314 | 15 | 245 | 3.2 | 6.4 | 0.00 | 0.00 | 0.00 | 50 | 1013.9 |
| 20260503052210 | 15 | 239 | 3.2 | 6.4 | 0.00 | 0.00 | 0.00 | 50 | 1013.9 |
| 20260503052121 | 15 | 241 | 3.2 | 6.4 | 0.00 | 0.00 | 0.00 | 50 | 1013.9 |
| 20260503052016 | 15 | 248 | 1.6 | 6.4 | 0.00 | 0.00 | 0.00 | 50 | 1013.9 |
| 20260503051926 | 15 | 245 | 1.6 | 6.4 | 0.00 | 0.00 | 0.00 | 50 | 1013.9 |
| 20260503051808 | 15 | 244 | 3.2 | 6.4 | 0.00 | 0.00 | 0.00 | 49 | 1013.9 |
| 20260503051731 | 15 | 228 | 3.2 | 6.4 | 0.00 | 0.00 | 0.00 | 49 | 1013.9 |
| 20260503051622 | 15 | 230 | 3.2 | 6.4 | 0.00 | 0.00 | 0.00 | 49 | 1013.9 |
| 20260503051513 | 15 | 229 | 3.2 | 6.4 | 0.00 | 0.00 | 0.00 | 49 | 1013.9 |
| 20260503051419 | 15 | 236 | 3.2 | 6.4 | 0.00 | 0.00 | 0.00 | 50 | 1013.8 |
| 20260503051309 | 15 | 235 | 4.8 | 6.4 | 0.00 | 0.00 | 0.00 | 50 | 1013.9 |
| 20260503051221 | 15 | 225 | 4.8 | 6.4 | 0.00 | 0.00 | 0.00 | 50 | 1013.9 |
| 20260503051138 | 15 | 236 | 4.8 | 6.4 | 0.00 | 0.00 | 0.00 | 50 | 1013.9 |
| 20260503051012 | 15 | 235 | 3.2 | 6.4 | 0.00 | 0.00 | 0.00 | 50 | 1013.8 |
| 20260503050918 | 15 | 238 | 3.2 | 6.4 | 0.00 | 0.00 | 0.00 | 50 | 1013.9 |
| 20260503050835 | 15 | 237 | 3.2 | 6.4 | 0.00 | 0.00 | 0.00 | 50 | 1013.9 |
| 20260503050717 | 15 | 235 | 4.8 | 6.4 | 0.00 | 0.00 | 0.00 | 50 | 1013.9 |
| 20260503050701 | 15 | 235 | 4.8 | 6.4 | 0.00 | 0.00 | 0.00 | 50 | 1013.9 |
| 20260503050535 | 15 | 239 | 4.8 | 6.4 | 0.00 | 0.00 | 0.00 | 50 | 1014.0 |
| 20260503050420 | 15 | 245 | 4.8 | 6.4 | 0.00 | 0.00 | 0.00 | 50 | 1013.8 |
| 20260503050333 | 15 | 240 | 4.8 | 6.4 | 0.00 | 0.00 | 0.00 | 50 | 1013.9 |
| 20260503050222 | 15 | 239 | 4.8 | 6.4 | 0.00 | 0.00 | 0.00 | 51 | 1013.9 |
| 20260503050138 | 15 | 233 | 3.2 | 6.4 | 0.00 | 0.00 | 0.00 | 51 | 1013.9 |
| 20260503050012 | 15 | 239 | 1.6 | 4.8 | 0.00 | 0.00 | 0.00 | 52 | 1013.8 |
| 20260503045924 | 15 | 243 | 1.6 | 4.8 | 0.00 | 0.00 | 0.00 | 52 | 1013.9 |
| 20260503045810 | 15 | 237 | 1.6 | 4.8 | 0.00 | 0.00 | 0.00 | 52 | 1013.8 |
| 20260503045709 | 15 | 236 | 1.6 | 4.8 | 0.00 | 0.00 | 0.00 | 52 | 1013.8 |
| 20260503045641 | 15 | 239 | 1.6 | 4.8 | 0.00 | 0.00 | 0.00 | 53 | 1013.8 |
| 20260503045517 | 15 | 233 | 1.6 | 4.8 | 0.00 | 0.00 | 0.00 | 52 | 1013.8 |
| 20260503045422 | 15 | 229 | 1.6 | 4.8 | 0.00 | 0.00 | 0.00 | 52 | 1013.8 |
| 20260503045354 | 15 | 240 | 1.6 | 4.8 | 0.00 | 0.00 | 0.00 | 53 | 1013.8 |
| 20260503045212 | 15 | 233 | 1.6 | 4.8 | 0.00 | 0.00 | 0.00 | 53 | 1013.7 |
| 20260503045135 | 15 | 239 | 3.2 | 4.8 | 0.00 | 0.00 | 0.00 | 53 | 1013.7 |
| 20260503045013 | 15 | 228 | 1.6 | 4.8 | 0.00 | 0.00 | 0.00 | 53 | 1013.8 |
| 20260503044927 | 15 | 237 | 1.6 | 4.8 | 0.00 | 0.00 | 0.00 | 53 | 1013.8 |
| 20260503044832 | 15 | 220 | 1.6 | 4.8 | 0.00 | 0.00 | 0.00 | 53 | 1013.7 |
| 20260503044708 | 15 | 245 | 1.6 | 4.8 | 0.00 | 0.00 | 0.00 | 52 | 1013.7 |
| 20260503044641 | 15 | 239 | 1.6 | 4.8 | 0.00 | 0.00 | 0.00 | 52 | 1013.7 |
| 20260503044538 | 15 | 249 | 1.6 | 4.8 | 0.00 | 0.00 | 0.00 | 52 | 1013.7 |
| 20260503044451 | 15 | 233 | 1.6 | 4.8 | 0.00 | 0.00 | 0.00 | 52 | 1013.8 |
| 20260503044335 | 15 | 233 | 1.6 | 6.4 | 0.00 | 0.00 | 0.00 | 52 | 1013.7 |
| 20260503044210 | 15 | 241 | 1.6 | 6.4 | 0.00 | 0.00 | 0.00 | 52 | 1013.7 |
| 20260503044121 | 15 | 241 | 0.0 | 6.4 | 0.00 | 0.00 | 0.00 | 51 | 1013.8 |
| 20260503044036 | 15 | 241 | 1.6 | 6.4 | 0.00 | 0.00 | 0.00 | 51 | 1013.7 |
| 20260503043927 | 15 | 241 | 1.6 | 6.4 | 0.00 | 0.00 | 0.00 | 51 | 1013.7 |
| 20260503043817 | 16 | 243 | 1.6 | 6.4 | 0.00 | 0.00 | 0.00 | 51 | 1013.7 |
| 20260503043713 | 16 | 247 | 1.6 | 6.4 | 0.00 | 0.00 | 0.00 | 51 | 1013.7 |
| 20260503043646 | 16 | 249 | 1.6 | 6.4 | 0.00 | 0.00 | 0.00 | 51 | 1013.7 |
| 20260503043539 | 16 | 247 | 1.6 | 6.4 | 0.00 | 0.00 | 0.00 | 51 | 1013.7 |
| 20260503043423 | 16 | 243 | 1.6 | 6.4 | 0.00 | 0.00 | 0.00 | 50 | 1013.7 |
| 20260503043337 | 16 | 247 | 1.6 | 6.4 | 0.00 | 0.00 | 0.00 | 49 | 1013.7 |
| 20260503043216 | 16 | 241 | 1.6 | 6.4 | 0.00 | 0.00 | 0.00 | 49 | 1013.7 |
| 20260503043127 | 16 | 241 | 3.2 | 6.4 | 0.00 | 0.00 | 0.00 | 48 | 1013.7 |
| 20260503043021 | 16 | 241 | 3.2 | 6.4 | 0.00 | 0.00 | 0.00 | 48 | 1013.7 |
| 20260503042927 | 16 | 232 | 1.6 | 6.4 | 0.00 | 0.00 | 0.00 | 48 | 1013.7 |
| 20260503042812 | 16 | 240 | 1.6 | 6.4 | 0.00 | 0.00 | 0.00 | 48 | 1013.7 |
| 20260503042712 | 16 | 244 | 1.6 | 6.4 | 0.00 | 0.00 | 0.00 | 49 | 1013.5 |
| 20260503042645 | 16 | 244 | 1.6 | 6.4 | 0.00 | 0.00 | 0.00 | 49 | 1013.6 |
| 20260503042511 | 16 | 244 | 3.2 | 6.4 | 0.00 | 0.00 | 0.00 | 49 | 1013.6 |
| 20260503042444 | 16 | 244 | 3.2 | 6.4 | 0.00 | 0.00 | 0.00 | 49 | 1013.7 |
| 20260503042308 | 16 | 239 | 1.6 | 4.8 | 0.00 | 0.00 | 0.00 | 48 | 1013.7 |
| 20260503042214 | 16 | 237 | 0.0 | 6.4 | 0.00 | 0.00 | 0.00 | 49 | 1013.6 |
| 20260503042137 | 16 | 237 | 0.0 | 6.4 | 0.00 | 0.00 | 0.00 | 48 | 1013.6 |
| 20260503042015 | 16 | 237 | 0.0 | 6.4 | 0.00 | 0.00 | 0.00 | 48 | 1013.6 |
| 20260503041921 | 16 | 238 | 1.6 | 6.4 | 0.00 | 0.00 | 0.00 | 48 | 1013.6 |
| 20260503041827 | 16 | 238 | 3.2 | 6.4 | 0.00 | 0.00 | 0.00 | 48 | 1013.6 |
| 20260503041712 | 16 | 235 | 3.2 | 6.4 | 0.00 | 0.00 | 0.00 | 48 | 1013.5 |
| 20260503041634 | 16 | 231 | 3.2 | 6.4 | 0.00 | 0.00 | 0.00 | 48 | 1013.5 |
| 20260503041513 | 16 | 243 | 3.2 | 6.4 | 0.00 | 0.00 | 0.00 | 48 | 1013.5 |
| 20260503041419 | 16 | 228 | 3.2 | 6.4 | 0.00 | 0.00 | 0.00 | 48 | 1013.5 |
| 20260503041331 | 17 | 262 | 4.8 | 6.4 | 0.00 | 0.00 | 0.00 | 48 | 1013.5 |
| 20260503041216 | 17 | 222 | 4.8 | 6.4 | 0.00 | 0.00 | 0.00 | 47 | 1013.5 |
| 20260503041138 | 17 | 231 | 4.8 | 6.4 | 0.00 | 0.00 | 0.00 | 48 | 1013.5 |
| 20260503041012 | 17 | 235 | 4.8 | 6.4 | 0.00 | 0.00 | 0.00 | 48 | 1013.5 |
| 20260503040942 | 17 | 224 | 4.8 | 6.4 | 0.00 | 0.00 | 0.00 | 48 | 1013.4 |
| 20260503040834 | 16 | 228 | 4.8 | 6.4 | 0.00 | 0.00 | 0.00 | 48 | 1013.4 |
| 20260503040716 | 16 | 251 | 3.2 | 6.4 | 0.00 | 0.00 | 0.00 | 48 | 1013.4 |
| 20260503040639 | 16 | 232 | 3.2 | 6.4 | 0.00 | 0.00 | 0.00 | 48 | 1013.4 |
| 20260503040512 | 16 | 237 | 3.2 | 6.4 | 0.00 | 0.00 | 0.00 | 49 | 1013.4 |
| 20260503040418 | 16 | 240 | 3.2 | 6.4 | 0.00 | 0.00 | 0.00 | 49 | 1013.4 |
| 20260503040329 | 16 | 222 | 3.2 | 6.4 | 0.00 | 0.00 | 0.00 | 49 | 1013.4 |
| 20260503040232 | 16 | 233 | 3.2 | 6.4 | 0.00 | 0.00 | 0.00 | 49 | 1013.4 |
| 20260503040143 | 16 | 243 | 3.2 | 6.4 | 0.00 | 0.00 | 0.00 | 49 | 1013.4 |
| 20260503040017 | 16 | 231 | 1.6 | 6.4 | 0.00 | 0.00 | 0.00 | 50 | 1013.3 |
| 20260503035923 | 16 | 240 | 1.6 | 6.4 | 0.00 | 0.00 | 0.00 | 50 | 1013.3 |
| 20260503035808 | 16 | 249 | 1.6 | 6.4 | 0.00 | 0.00 | 0.00 | 50 | 1013.4 |
| 20260503035715 | 16 | 240 | 1.6 | 6.4 | 0.00 | 0.00 | 0.00 | 50 | 1013.4 |
| 20260503035639 | 16 | 249 | 1.6 | 6.4 | 0.00 | 0.00 | 0.00 | 50 | 1013.4 |
| 20260503035541 | 16 | 238 | 3.2 | 6.4 | 0.00 | 0.00 | 0.00 | 50 | 1013.3 |
| 20260503035445 | 16 | 228 | 3.2 | 6.4 | 0.00 | 0.00 | 0.00 | 50 | 1013.3 |
| 20260503035337 | 16 | 243 | 3.2 | 6.4 | 0.00 | 0.00 | 0.00 | 50 | 1013.3 |
| 20260503035211 | 16 | 233 | 3.2 | 6.4 | 0.00 | 0.00 | 0.00 | 50 | 1013.3 |
| 20260503035124 | 16 | 239 | 3.2 | 6.4 | 0.00 | 0.00 | 0.00 | 50 | 1013.3 |
| 20260503035021 | 16 | 228 | 3.2 | 6.4 | 0.00 | 0.00 | 0.00 | 50 | 1013.3 |
| 20260503034926 | 16 | 258 | 3.2 | 4.8 | 0.00 | 0.00 | 0.00 | 50 | 1013.3 |
| 20260503034839 | 16 | 233 | 3.2 | 4.8 | 0.00 | 0.00 | 0.00 | 50 | 1013.3 |
| 20260503034715 | 16 | 225 | 1.6 | 4.8 | 0.00 | 0.00 | 0.00 | 50 | 1013.3 |
| 20260503034645 | 17 | 244 | 3.2 | 4.8 | 0.00 | 0.00 | 0.00 | 50 | 1013.3 |
| 20260503034518 | 17 | 239 | 3.2 | 6.4 | 0.00 | 0.00 | 0.00 | 50 | 1013.3 |
| 20260503034430 | 17 | 220 | 1.6 | 6.4 | 0.00 | 0.00 | 0.00 | 50 | 1013.3 |
| 20260503034320 | 17 | 237 | 0.0 | 8.0 | 0.00 | 0.00 | 0.00 | 50 | 1013.3 |
| 20260503034216 | 17 | 239 | 1.6 | 8.0 | 0.00 | 0.00 | 0.00 | 50 | 1013.2 |
| 20260503034120 | 17 | 239 | 1.6 | 8.0 | 0.00 | 0.00 | 0.00 | 50 | 1013.2 |
| 20260503034021 | 17 | 239 | 1.6 | 8.0 | 0.00 | 0.00 | 0.00 | 50 | 1013.2 |
| 20260503033927 | 17 | 235 | 1.6 | 8.0 | 0.00 | 0.00 | 0.00 | 50 | 1013.3 |
| 20260503033817 | 17 | 235 | 1.6 | 8.0 | 0.00 | 0.00 | 0.00 | 49 | 1013.2 |
| 20260503033712 | 17 | 239 | 1.6 | 8.0 | 0.00 | 0.00 | 0.00 | 49 | 1013.2 |
| 20260503033645 | 17 | 228 | 3.2 | 8.0 | 0.00 | 0.00 | 0.00 | 49 | 1013.2 |
| 20260503033545 | 17 | 238 | 3.2 | 8.0 | 0.00 | 0.00 | 0.00 | 49 | 1013.2 |
| 20260503033410 | 17 | 244 | 1.6 | 6.4 | 0.00 | 0.00 | 0.00 | 49 | 1013.1 |
| 20260503033316 | 17 | 235 | 1.6 | 6.4 | 0.00 | 0.00 | 0.00 | 49 | 1013.2 |
| 20260503033216 | 17 | 240 | 1.6 | 6.4 | 0.00 | 0.00 | 0.00 | 49 | 1013.1 |
| 20260503033127 | 17 | 245 | 1.6 | 6.4 | 0.00 | 0.00 | 0.00 | 49 | 1013.2 |
| 20260503033022 | 17 | 231 | 3.2 | 4.8 | 0.00 | 0.00 | 0.00 | 49 | 1013.1 |
| 20260503032928 | 17 | 239 | 3.2 | 4.8 | 0.00 | 0.00 | 0.00 | 50 | 1013.1 |
| 20260503032813 | 17 | 237 | 1.6 | 4.8 | 0.00 | 0.00 | 0.00 | 49 | 1013.1 |
| 20260503032737 | 17 | 240 | 0.0 | 4.8 | 0.00 | 0.00 | 0.00 | 49 | 1013.1 |
| 20260503032631 | 17 | 240 | 0.0 | 4.8 | 0.00 | 0.00 | 0.00 | 49 | 1013.0 |
| 20260503032526 | 17 | 240 | 1.6 | 4.8 | 0.00 | 0.00 | 0.00 | 50 | 1013.1 |
| 20260503032411 | 17 | 236 | 1.6 | 4.8 | 0.00 | 0.00 | 0.00 | 49 | 1013.0 |
| 20260503032346 | 17 | 237 | 1.6 | 4.8 | 0.00 | 0.00 | 0.00 | 49 | 1013.0 |
| 20260503032230 | 17 | 232 | 1.6 | 4.8 | 0.00 | 0.00 | 0.00 | 49 | 1013.1 |
| 20260503032132 | 17 | 237 | 1.6 | 4.8 | 0.00 | 0.00 | 0.00 | 49 | 1012.9 |
| 20260503032010 | 17 | 235 | 1.6 | 3.2 | 0.00 | 0.00 | 0.00 | 49 | 1013.0 |
| 20260503031916 | 17 | 244 | 1.6 | 3.2 | 0.00 | 0.00 | 0.00 | 49 | 1013.0 |
| 20260503031822 | 18 | 243 | 1.6 | 3.2 | 0.00 | 0.00 | 0.00 | 49 | 1012.9 |
| 20260503031718 | 18 | 239 | 1.6 | 3.2 | 0.00 | 0.00 | 0.00 | 49 | 1012.9 |
| 20260503031630 | 18 | 239 | 0.0 | 3.2 | 0.00 | 0.00 | 0.00 | 49 | 1012.8 |
| 20260503031524 | 18 | 264 | 0.0 | 1.6 | 0.00 | 0.00 | 0.00 | 48 | 1012.9 |
| 20260503031420 | 18 | 264 | 0.0 | 1.6 | 0.00 | 0.00 | 0.00 | 48 | 1012.9 |
| 20260503031325 | 18 | 264 | 0.0 | 1.6 | 0.00 | 0.00 | 0.00 | 48 | 1012.8 |
| 20260503031211 | 18 | 264 | 0.0 | 1.6 | 0.00 | 0.00 | 0.00 | 47 | 1012.8 |
| 20260503031133 | 18 | 263 | 0.0 | 1.6 | 0.00 | 0.00 | 0.00 | 47 | 1012.8 |
| 20260503031027 | 18 | 264 | 0.0 | 1.6 | 0.00 | 0.00 | 0.00 | 47 | 1012.8 |
| 20260503030913 | 18 | 268 | 0.0 | 1.6 | 0.00 | 0.00 | 0.00 | 47 | 1012.7 |
| 20260503030830 | 18 | 267 | 0.0 | 1.6 | 0.00 | 0.00 | 0.00 | 47 | 1012.8 |
| 20260503030714 | 18 | 268 | 0.0 | 1.6 | 0.00 | 0.00 | 0.00 | 47 | 1012.8 |
| 20260503030636 | 18 | 267 | 0.0 | 1.6 | 0.00 | 0.00 | 0.00 | 47 | 1012.8 |
| 20260503030531 | 18 | 268 | 0.0 | 1.6 | 0.00 | 0.00 | 0.00 | 47 | 1012.8 |
| 20260503030415 | 19 | 268 | 0.0 | 1.6 | 0.00 | 0.00 | 0.00 | 47 | 1012.8 |
| 20260503030328 | 19 | 268 | 0.0 | 1.6 | 0.00 | 0.00 | 0.00 | 46 | 1012.7 |
| 20260503030218 | 19 | 268 | 0.0 | 1.6 | 0.00 | 0.00 | 0.00 | 47 | 1012.7 |
| 20260503030133 | 19 | 283 | 0.0 | 1.6 | 0.00 | 0.00 | 0.00 | 47 | 1012.8 |
| 20260503030035 | 19 | 283 | 0.0 | 1.6 | 0.00 | 0.00 | 0.00 | 47 | 1012.8 |
| 20260503025919 | 19 | 283 | 0.0 | 1.6 | 0.00 | 0.00 | 0.00 | 46 | 1012.8 |
| 20260503025825 | 19 | 293 | 0.0 | 0.0 | 0.00 | 0.00 | 0.00 | 46 | 1012.7 |
| 20260503025711 | 20 | 293 | 0.0 | 0.0 | 0.00 | 0.00 | 0.00 | 46 | 1012.7 |
| 20260503025638 | 20 | 293 | 0.0 | 0.0 | 0.00 | 0.00 | 0.00 | 46 | 1012.7 |
| 20260503025513 | 20 | 293 | 0.0 | 0.0 | 0.00 | 0.00 | 0.00 | 46 | 1012.7 |
| 20260503025418 | 20 | 293 | 0.0 | 0.0 | 0.00 | 0.00 | 0.00 | 46 | 1012.7 |
| 20260503025331 | 20 | 293 | 0.0 | 0.0 | 0.00 | 0.00 | 0.00 | 46 | 1012.6 |
| 20260503025215 | 20 | 293 | 0.0 | 0.0 | 0.00 | 0.00 | 0.00 | 46 | 1012.6 |
| 20260503025138 | 20 | 293 | 0.0 | 0.0 | 0.00 | 0.00 | 0.00 | 46 | 1012.6 |
| 20260503025037 | 20 | 293 | 0.0 | 0.0 | 0.00 | 0.00 | 0.00 | 46 | 1012.7 |
| 20260503024921 | 20 | 293 | 0.0 | 0.0 | 0.00 | 0.00 | 0.00 | 46 | 1012.6 |
| 20260503024845 | 20 | 293 | 0.0 | 0.0 | 0.00 | 0.00 | 0.00 | 46 | 1012.7 |
| 20260503024730 | 20 | 293 | 0.0 | 0.0 | 0.00 | 0.00 | 0.00 | 46 | 1012.6 |
| 20260503024656 | 20 | 293 | 0.0 | 0.0 | 0.00 | 0.00 | 0.00 | 46 | 1012.6 |
| 20260503024509 | 20 | 293 | 0.0 | 0.0 | 0.00 | 0.00 | 0.00 | 46 | 1012.6 |
| 20260503024415 | 20 | 293 | 0.0 | 1.6 | 0.00 | 0.00 | 0.00 | 46 | 1012.6 |
| 20260503024332 | 21 | 293 | 0.0 | 1.6 | 0.00 | 0.00 | 0.00 | 46 | 1012.6 |
| 20260503024236 | 21 | 293 | 0.0 | 1.6 | 0.00 | 0.00 | 0.00 | 47 | 1012.6 |
| 20260503024200 | 21 | 293 | 0.0 | 1.6 | 0.00 | 0.00 | 0.00 | 46 | 1012.6 |
| 20260503024013 | 21 | 293 | 0.0 | 1.6 | 0.00 | 0.00 | 0.00 | 47 | 1012.6 |
| 20260503023926 | 21 | 293 | 0.0 | 1.6 | 0.00 | 0.00 | 0.00 | 47 | 1012.6 |
| 20260503023811 | 21 | 293 | 0.0 | 1.6 | 0.00 | 0.00 | 0.00 | 47 | 1012.6 |
| 20260503023738 | 21 | 293 | 0.0 | 1.6 | 0.00 | 0.00 | 0.00 | 47 | 1012.5 |
| 20260503023623 | 21 | 293 | 0.0 | 1.6 | 0.00 | 0.00 | 0.00 | 46 | 1012.6 |
| 20260503023517 | 21 | 293 | 0.0 | 0.0 | 0.00 | 0.00 | 0.00 | 46 | 1012.5 |
| 20260503023422 | 21 | 293 | 0.0 | 0.0 | 0.00 | 0.00 | 0.00 | 45 | 1012.5 |
| 20260503023308 | 21 | 293 | 0.0 | 0.0 | 0.00 | 0.00 | 0.00 | 45 | 1012.6 |
| 20260503023231 | 21 | 293 | 0.0 | 0.0 | 0.00 | 0.00 | 0.00 | 45 | 1012.5 |
| 20260503023142 | 21 | 293 | 0.0 | 0.0 | 0.00 | 0.00 | 0.00 | 45 | 1012.5 |
| 20260503023021 | 22 | 293 | 0.0 | 0.0 | 0.00 | 0.00 | 0.00 | 44 | 1012.6 |
| 20260503022926 | 22 | 293 | 0.0 | 0.0 | 0.00 | 0.00 | 0.00 | 44 | 1012.5 |
| 20260503022832 | 22 | 293 | 0.0 | 0.0 | 0.00 | 0.00 | 0.00 | 44 | 1012.5 |
| 20260503022724 | 22 | 293 | 0.0 | 0.0 | 0.00 | 0.00 | 0.00 | 44 | 1012.5 |
| 20260503022630 | 22 | 293 | 0.0 | 0.0 | 0.00 | 0.00 | 0.00 | 44 | 1012.5 |
| 20260503022532 | 22 | 293 | 0.0 | 0.0 | 0.00 | 0.00 | 0.00 | 44 | 1012.5 |
| 20260503022448 | 22 | 293 | 0.0 | 0.0 | 0.00 | 0.00 | 0.00 | 44 | 1012.5 |
| 20260503022335 | 22 | 293 | 0.0 | 0.0 | 0.00 | 0.00 | 0.00 | 45 | 1012.5 |
| 20260503022210 | 22 | 293 | 0.0 | 0.0 | 0.00 | 0.00 | 0.00 | 45 | 1012.5 |
| 20260503022122 | 22 | 293 | 0.0 | 0.0 | 0.00 | 0.00 | 0.00 | 45 | 1012.5 |
| 20260503022036 | 22 | 293 | 0.0 | 0.0 | 0.00 | 0.00 | 0.00 | 44 | 1012.5 |
| 20260503021927 | 22 | 293 | 0.0 | 0.0 | 0.00 | 0.00 | 0.00 | 44 | 1012.6 |
| 20260503021812 | 22 | 293 | 0.0 | 1.6 | 0.00 | 0.00 | 0.00 | 41 | 1012.5 |
| 20260503021711 | 22 | 293 | 0.0 | 1.6 | 0.00 | 0.00 | 0.00 | 41 | 1012.5 |
| 20260503021623 | 22 | 293 | 0.0 | 1.6 | 0.00 | 0.00 | 0.00 | 40 | 1012.5 |
| 20260503021518 | 22 | 293 | 0.0 | 3.2 | 0.00 | 0.00 | 0.00 | 41 | 1012.5 |
| 20260503021420 | 22 | 293 | 0.0 | 4.8 | 0.00 | 0.00 | 0.00 | 41 | 1012.5 |
| 20260503021333 | 22 | 293 | 0.0 | 4.8 | 0.00 | 0.00 | 0.00 | 41 | 1012.5 |
| 20260503021229 | 22 | 293 | 0.0 | 4.8 | 0.00 | 0.00 | 0.00 | 41 | 1012.5 |
| 20260503021123 | 22 | 293 | 0.0 | 4.8 | 0.00 | 0.00 | 0.00 | 41 | 1012.5 |
| 20260503021017 | 22 | 293 | 0.0 | 4.8 | 0.00 | 0.00 | 0.00 | 41 | 1012.5 |
| 20260503020950 | 22 | 293 | 0.0 | 4.8 | 0.00 | 0.00 | 0.00 | 42 | 1012.5 |
| 20260503020815 | 22 | 293 | 0.0 | 4.8 | 0.00 | 0.00 | 0.00 | 42 | 1012.5 |
| 20260503020711 | 22 | 293 | 1.6 | 4.8 | 0.00 | 0.00 | 0.00 | 42 | 1012.5 |
| 20260503020643 | 22 | 293 | 1.6 | 4.8 | 0.00 | 0.00 | 0.00 | 42 | 1012.5 |
| 20260503020521 | 22 | 293 | 3.2 | 4.8 | 0.00 | 0.00 | 0.00 | 42 | 1012.5 |
| 20260503020418 | 22 | 293 | 3.2 | 4.8 | 0.00 | 0.00 | 0.00 | 43 | 1012.4 |
| 20260503020323 | 22 | 301 | 3.2 | 4.8 | 0.00 | 0.00 | 0.00 | 43 | 1012.5 |
| 20260503020209 | 22 | 298 | 3.2 | 4.8 | 0.00 | 0.00 | 0.00 | 43 | 1012.5 |
| 20260503020131 | 22 | 295 | 3.2 | 4.8 | 0.00 | 0.00 | 0.00 | 43 | 1012.4 |
| 20260503020025 | 22 | 296 | 3.2 | 4.8 | 0.00 | 0.00 | 0.00 | 43 | 1012.5 |
| 20260503015915 | 22 | 296 | 3.2 | 4.8 | 0.00 | 0.00 | 0.00 | 43 | 1012.5 |
| 20260503015829 | 22 | 296 | 3.2 | 4.8 | 0.00 | 0.00 | 0.00 | 43 | 1012.4 |
| 20260503015714 | 22 | 295 | 3.2 | 4.8 | 0.00 | 0.00 | 0.00 | 43 | 1012.4 |
| 20260503015630 | 22 | 295 | 3.2 | 4.8 | 0.00 | 0.00 | 0.00 | 43 | 1012.4 |
| 20260503015511 | 22 | 293 | 3.2 | 4.8 | 0.00 | 0.00 | 0.00 | 44 | 1012.5 |
| 20260503015416 | 22 | 293 | 3.2 | 4.8 | 0.00 | 0.00 | 0.00 | 44 | 1012.5 |
| 20260503015323 | 22 | 291 | 3.2 | 4.8 | 0.00 | 0.00 | 0.00 | 44 | 1012.5 |
| 20260503015215 | 22 | 290 | 3.2 | 4.8 | 0.00 | 0.00 | 0.00 | 44 | 1012.4 |
| 20260503015131 | 22 | 291 | 3.2 | 4.8 | 0.00 | 0.00 | 0.00 | 44 | 1012.4 |
| 20260503015033 | 22 | 291 | 3.2 | 4.8 | 0.00 | 0.00 | 0.00 | 44 | 1012.5 |
| 20260503014938 | 22 | 287 | 3.2 | 4.8 | 0.00 | 0.00 | 0.00 | 44 | 1012.5 |
| 20260503014830 | 22 | 293 | 3.2 | 4.8 | 0.00 | 0.00 | 0.00 | 44 | 1012.4 |
| 20260503014710 | 23 | 295 | 3.2 | 4.8 | 0.00 | 0.00 | 0.00 | 44 | 1012.4 |
| 20260503014635 | 23 | 296 | 3.2 | 4.8 | 0.00 | 0.00 | 0.00 | 44 | 1012.5 |
| 20260503014509 | 23 | 296 | 3.2 | 4.8 | 0.00 | 0.00 | 0.00 | 44 | 1012.4 |
| 20260503014422 | 23 | 298 | 3.2 | 4.8 | 0.00 | 0.00 | 0.00 | 44 | 1012.5 |
| 20260503014319 | 23 | 295 | 1.6 | 4.8 | 0.00 | 0.00 | 0.00 | 44 | 1012.5 |
| 20260503014214 | 23 | 301 | 1.6 | 4.8 | 0.00 | 0.00 | 0.00 | 44 | 1012.5 |
| 20260503014130 | 23 | 302 | 3.2 | 4.8 | 0.00 | 0.00 | 0.00 | 44 | 1012.5 |
| 20260503014025 | 23 | 304 | 1.6 | 4.8 | 0.00 | 0.00 | 0.00 | 44 | 1012.5 |
| 20260503013910 | 23 | 301 | 1.6 | 4.8 | 0.00 | 0.00 | 0.00 | 44 | 1012.5 |
| 20260503013816 | 23 | 316 | 1.6 | 4.8 | 0.00 | 0.00 | 0.00 | 44 | 1012.5 |
| 20260503013719 | 23 | 323 | 3.2 | 4.8 | 0.00 | 0.00 | 0.00 | 44 | 1012.5 |
| 20260503013627 | 23 | 297 | 1.6 | 4.8 | 0.00 | 0.00 | 0.00 | 44 | 1012.5 |
| 20260503013549 | 23 | 311 | 1.6 | 4.8 | 0.00 | 0.00 | 0.00 | 43 | 1012.6 |
| 20260503013413 | 23 | 320 | 3.2 | 4.8 | 0.00 | 0.00 | 0.00 | 42 | 1012.5 |
| 20260503013319 | 23 | 306 | 1.6 | 4.8 | 0.00 | 0.00 | 0.00 | 43 | 1012.6 |
| 20260503013215 | 23 | 297 | 1.6 | 4.8 | 0.00 | 0.00 | 0.00 | 43 | 1012.6 |
| 20260503013126 | 23 | 296 | 3.2 | 4.8 | 0.00 | 0.00 | 0.00 | 42 | 1012.6 |
| 20260503013032 | 23 | 292 | 3.2 | 4.8 | 0.00 | 0.00 | 0.00 | 42 | 1012.6 |
| 20260503012936 | 23 | 291 | 3.2 | 4.8 | 0.00 | 0.00 | 0.00 | 42 | 1012.6 |
| 20260503012813 | 23 | 289 | 3.2 | 4.8 | 0.00 | 0.00 | 0.00 | 42 | 1012.6 |
| 20260503012709 | 23 | 283 | 3.2 | 4.8 | 0.00 | 0.00 | 0.00 | 41 | 1012.6 |
| 20260503012640 | 23 | 306 | 3.2 | 4.8 | 0.00 | 0.00 | 0.00 | 41 | 1012.6 |
| 20260503012516 | 23 | 293 | 3.2 | 4.8 | 0.00 | 0.00 | 0.00 | 41 | 1012.6 |
| 20260503012424 | 23 | 294 | 3.2 | 4.8 | 0.00 | 0.00 | 0.00 | 42 | 1012.6 |
| 20260503012309 | 23 | 293 | 3.2 | 4.8 | 0.00 | 0.00 | 0.00 | 41 | 1012.6 |
| 20260503012215 | 23 | 301 | 3.2 | 4.8 | 0.00 | 0.00 | 0.00 | 41 | 1012.6 |
| 20260503012137 | 23 | 301 | 3.2 | 4.8 | 0.00 | 0.00 | 0.00 | 41 | 1012.6 |
| 20260503012010 | 23 | 295 | 3.2 | 4.8 | 0.00 | 0.00 | 0.00 | 41 | 1012.7 |
| 20260503011923 | 23 | 294 | 3.2 | 4.8 | 0.00 | 0.00 | 0.00 | 41 | 1012.6 |
| 20260503011832 | 23 | 305 | 3.2 | 4.8 | 0.00 | 0.00 | 0.00 | 41 | 1012.7 |
| 20260503011708 | 23 | 292 | 3.2 | 4.8 | 0.00 | 0.00 | 0.00 | 41 | 1012.7 |
| 20260503011621 | 23 | 291 | 3.2 | 4.8 | 0.00 | 0.00 | 0.00 | 41 | 1012.7 |
| 20260503011515 | 23 | 295 | 3.2 | 4.8 | 0.00 | 0.00 | 0.00 | 41 | 1012.7 |
| 20260503011428 | 23 | 285 | 3.2 | 4.8 | 0.00 | 0.00 | 0.00 | 40 | 1012.7 |
| 20260503011308 | 23 | 298 | 1.6 | 4.8 | 0.00 | 0.00 | 0.00 | 41 | 1012.7 |
| 20260503011214 | 23 | 320 | 3.2 | 4.8 | 0.00 | 0.00 | 0.00 | 40 | 1012.7 |
| 20260503011138 | 23 | 320 | 3.2 | 4.8 | 0.00 | 0.00 | 0.00 | 40 | 1012.7 |
| 20260503011032 | 24 | 304 | 3.2 | 4.8 | 0.00 | 0.00 | 0.00 | 40 | 1012.7 |
| 20260503010917 | 24 | 297 | 3.2 | 4.8 | 0.00 | 0.00 | 0.00 | 39 | 1012.7 |
| 20260503010850 | 24 | 331 | 3.2 | 6.4 | 0.00 | 0.00 | 0.00 | 39 | 1012.7 |
| 20260503010714 | 24 | 320 | 3.2 | 6.4 | 0.00 | 0.00 | 0.00 | 38 | 1012.7 |
| 20260503010703 | 24 | 335 | 3.2 | 6.4 | 0.00 | 0.00 | 0.00 | 38 | 1012.7 |
| 20260503010536 | 24 | 313 | 3.2 | 6.4 | 0.00 | 0.00 | 0.00 | 38 | 1012.7 |
| 20260503010424 | 24 | 307 | 3.2 | 6.4 | 0.00 | 0.00 | 0.00 | 39 | 1012.7 |
| 20260503010310 | 24 | 314 | 3.2 | 6.4 | 0.00 | 0.00 | 0.00 | 38 | 1012.8 |
| 20260503010215 | 24 | 333 | 3.2 | 6.4 | 0.00 | 0.00 | 0.00 | 38 | 1012.8 |
| 20260503010139 | 24 | 322 | 3.2 | 6.4 | 0.00 | 0.00 | 0.00 | 36 | 1012.7 |
| 20260503010030 | 24 | 333 | 4.8 | 6.4 | 0.00 | 0.00 | 0.00 | 36 | 1012.7 |
| 20260503005911 | 24 | 333 | 4.8 | 6.4 | 0.00 | 0.00 | 0.00 | 34 | 1012.7 |
| 20260503005816 | 24 | 341 | 4.8 | 6.4 | 0.00 | 0.00 | 0.00 | 35 | 1012.7 |
| 20260503005712 | 24 | 338 | 4.8 | 6.4 | 0.00 | 0.00 | 0.00 | 34 | 1012.7 |
| 20260503005644 | 24 | 339 | 3.2 | 6.4 | 0.00 | 0.00 | 0.00 | 34 | 1012.8 |
| 20260503005526 | 25 | 341 | 3.2 | 8.0 | 0.00 | 0.00 | 0.00 | 34 | 1012.7 |
| 20260503005414 | 25 | 340 | 4.8 | 8.0 | 0.00 | 0.00 | 0.00 | 36 | 1012.7 |
| 20260503005341 | 25 | 335 | 4.8 | 8.0 | 0.00 | 0.00 | 0.00 | 33 | 1012.8 |
| 20260503005233 | 25 | 349 | 4.8 | 8.0 | 0.00 | 0.00 | 0.00 | 34 | 1012.7 |
| 20260503005128 | 25 | 354 | 4.8 | 8.0 | 0.00 | 0.00 | 0.00 | 34 | 1012.8 |
| 20260503005030 | 25 | 344 | 4.8 | 8.0 | 0.00 | 0.00 | 0.00 | 35 | 1012.8 |
| 20260503004915 | 25 | 347 | 4.8 | 8.0 | 0.00 | 0.00 | 0.00 | 34 | 1012.8 |
| 20260503004821 | 25 | 4 | 4.8 | 8.0 | 0.00 | 0.00 | 0.00 | 34 | 1012.9 |
| 20260503004717 | 25 | 344 | 4.8 | 8.0 | 0.00 | 0.00 | 0.00 | 36 | 1012.9 |
| 20260503004649 | 25 | 338 | 4.8 | 8.0 | 0.00 | 0.00 | 0.00 | 35 | 1012.9 |
| 20260503004550 | 25 | 324 | 3.2 | 8.0 | 0.00 | 0.00 | 0.00 | 37 | 1012.9 |
| 20260503004415 | 25 | 345 | 4.8 | 8.0 | 0.00 | 0.00 | 0.00 | 36 | 1012.8 |
| 20260503004342 | 25 | 344 | 4.8 | 8.0 | 0.00 | 0.00 | 0.00 | 37 | 1012.8 |
| 20260503004217 | 25 | 339 | 4.8 | 8.0 | 0.00 | 0.00 | 0.00 | 36 | 1012.8 |
| 20260503004150 | 25 | 354 | 4.8 | 8.0 | 0.00 | 0.00 | 0.00 | 36 | 1012.9 |
| 20260503004024 | 25 | 354 | 4.8 | 8.0 | 0.00 | 0.00 | 0.00 | 36 | 1012.8 |
| 20260503003958 | 25 | 331 | 4.8 | 8.0 | 0.00 | 0.00 | 0.00 | 35 | 1012.8 |
| 20260503003813 | 25 | 337 | 4.8 | 8.0 | 0.00 | 0.00 | 0.00 | 35 | 1012.8 |
| 20260503003709 | 25 | 330 | 4.8 | 6.4 | 0.00 | 0.00 | 0.00 | 35 | 1012.8 |
| 20260503003640 | 25 | 337 | 4.8 | 6.4 | 0.00 | 0.00 | 0.00 | 35 | 1012.8 |
| 20260503003515 | 25 | 344 | 4.8 | 8.0 | 0.00 | 0.00 | 0.00 | 34 | 1012.8 |
| 20260503003420 | 25 | 335 | 4.8 | 8.0 | 0.00 | 0.00 | 0.00 | 33 | 1012.8 |
| 20260503003336 | 25 | 337 | 4.8 | 8.0 | 0.00 | 0.00 | 0.00 | 35 | 1012.9 |
| 20260503003211 | 25 | 14 | 4.8 | 8.0 | 0.00 | 0.00 | 0.00 | 35 | 1012.9 |
| 20260503003144 | 25 | 354 | 4.8 | 8.0 | 0.00 | 0.00 | 0.00 | 35 | 1012.9 |
| 20260503003018 | 25 | 332 | 4.8 | 9.7 | 0.00 | 0.00 | 0.00 | 34 | 1012.8 |
| 20260503002944 | 25 | 326 | 6.4 | 9.7 | 0.00 | 0.00 | 0.00 | 35 | 1012.8 |
| 20260503002836 | 25 | 343 | 6.4 | 9.7 | 0.00 | 0.00 | 0.00 | 34 | 1012.9 |
| 20260503002724 | 25 | 333 | 6.4 | 9.7 | 0.00 | 0.00 | 0.00 | 34 | 1012.9 |
| 20260503002708 | 25 | 332 | 6.4 | 9.7 | 0.00 | 0.00 | 0.00 | 33 | 1012.9 |
| 20260503002511 | 25 | 322 | 6.4 | 9.7 | 0.00 | 0.00 | 0.00 | 31 | 1013.0 |
| 20260503002445 | 25 | 344 | 6.4 | 9.7 | 0.00 | 0.00 | 0.00 | 31 | 1012.8 |
| 20260503002313 | 25 | 343 | 6.4 | 9.7 | 0.00 | 0.00 | 0.00 | 31 | 1012.8 |
| 20260503002238 | 25 | 354 | 6.4 | 9.7 | 0.00 | 0.00 | 0.00 | 32 | 1012.9 |
| 20260503002128 | 25 | 350 | 4.8 | 9.7 | 0.00 | 0.00 | 0.00 | 32 | 1012.8 |
| 20260503002026 | 25 | 359 | 4.8 | 9.7 | 0.00 | 0.00 | 0.00 | 33 | 1012.9 |
| 20260503001932 | 25 | 339 | 6.4 | 9.7 | 0.00 | 0.00 | 0.00 | 32 | 1012.8 |
| 20260503001824 | 25 | 332 | 6.4 | 8.0 | 0.00 | 0.00 | 0.00 | 31 | 1012.8 |
| 20260503001710 | 25 | 338 | 4.8 | 8.0 | 0.00 | 0.00 | 0.00 | 31 | 1012.9 |
| 20260503001625 | 25 | 350 | 4.8 | 8.0 | 0.00 | 0.00 | 0.00 | 32 | 1012.9 |
| 20260503001547 | 25 | 20 | 3.2 | 6.4 | 0.00 | 0.00 | 0.00 | 31 | 1012.8 |
| 20260503001435 | 26 | 359 | 3.2 | 6.4 | 0.00 | 0.00 | 0.00 | 31 | 1012.9 |
| 20260503001327 | 26 | 354 | 3.2 | 6.4 | 0.00 | 0.00 | 0.00 | 32 | 1013.0 |
| 20260503001213 | 26 | 359 | 3.2 | 6.4 | 0.00 | 0.00 | 0.00 | 32 | 1012.9 |
| 20260503001145 | 26 | 349 | 3.2 | 6.4 | 0.00 | 0.00 | 0.00 | 31 | 1012.9 |
| 20260503001020 | 26 | 340 | 3.2 | 6.4 | 0.00 | 0.00 | 0.00 | 34 | 1012.9 |
| 20260503000925 | 26 | 339 | 4.8 | 6.4 | 0.00 | 0.00 | 0.00 | 33 | 1012.8 |
| 20260503000836 | 26 | 330 | 4.8 | 6.4 | 0.00 | 0.00 | 0.00 | 32 | 1013.0 |
| 20260503000711 | 26 | 337 | 4.8 | 6.4 | 0.00 | 0.00 | 0.00 | 31 | 1012.9 |
| 20260503000621 | 26 | 337 | 3.2 | 6.4 | 0.00 | 0.00 | 0.00 | 31 | 1012.9 |
| 20260503000543 | 26 | 345 | 3.2 | 6.4 | 0.00 | 0.00 | 0.00 | 29 | 1013.0 |
| 20260503000456 | 26 | 354 | 1.6 | 6.4 | 0.00 | 0.00 | 0.00 | 28 | 1013.0 |
| 20260503000312 | 26 | 9 | 3.2 | 6.4 | 0.00 | 0.00 | 0.00 | 28 | 1012.9 |
| 20260503000218 | 26 | 354 | 3.2 | 6.4 | 0.00 | 0.00 | 0.00 | 28 | 1013.0 |
| 20260503000123 | 26 | 18 | 3.2 | 6.4 | 0.00 | 0.00 | 0.00 | 28 | 1013.0 |
| 20260503000045 | 26 | 354 | 3.2 | 8.0 | 0.00 | 0.00 | 0.00 | 29 | 1012.9 |
| 20260502235909 | 26 | 339 | 3.2 | 8.0 | 0.00 | 0.00 | 0.00 | 28 | 1013.0 |
| 20260502235815 | 26 | 348 | 3.2 | 8.0 | 0.00 | 0.00 | 0.00 | 29 | 1013.0 |
| 20260502235710 | 26 | 13 | 3.2 | 8.0 | 0.00 | 0.00 | 0.00 | 28 | 1013.0 |
| 20260502235626 | 26 | 10 | 3.2 | 8.0 | 0.00 | 0.00 | 0.00 | 28 | 1012.9 |
| 20260502235545 | 26 | 354 | 3.2 | 8.0 | 0.00 | 0.00 | 0.00 | 27 | 1012.9 |
| 20260502235409 | 26 | 35 | 3.2 | 9.7 | 0.00 | 0.00 | 0.00 | 28 | 1013.0 |
| 20260502235315 | 26 | 16 | 4.8 | 9.7 | 0.00 | 0.00 | 0.00 | 28 | 1013.0 |
| 20260502235218 | 26 | 4 | 4.8 | 9.7 | 0.00 | 0.00 | 0.00 | 28 | 1012.9 |
| 20260502235120 | 26 | 14 | 4.8 | 9.7 | 0.00 | 0.00 | 0.00 | 27 | 1012.9 |
| 20260502235014 | 26 | 11 | 4.8 | 9.7 | 0.00 | 0.00 | 0.00 | 27 | 1012.9 |
| 20260502234931 | 26 | 4 | 4.8 | 9.7 | 0.00 | 0.00 | 0.00 | 28 | 1013.0 |
| 20260502234817 | 26 | 354 | 4.8 | 9.7 | 0.00 | 0.00 | 0.00 | 27 | 1013.0 |
| 20260502234709 | 26 | 21 | 6.4 | 12.9 | 0.00 | 0.00 | 0.00 | 27 | 1013.0 |
| 20260502234641 | 26 | 18 | 6.4 | 12.9 | 0.00 | 0.00 | 0.00 | 27 | 1013.0 |
| 20260502234515 | 26 | 15 | 4.8 | 12.9 | 0.00 | 0.00 | 0.00 | 28 | 1013.0 |
| 20260502234421 | 26 | 20 | 3.2 | 12.9 | 0.00 | 0.00 | 0.00 | 27 | 1013.0 |
| 20260502234338 | 26 | 19 | 4.8 | 12.9 | 0.00 | 0.00 | 0.00 | 27 | 1013.0 |
| 20260502234220 | 26 | 23 | 4.8 | 12.9 | 0.00 | 0.00 | 0.00 | 28 | 1013.0 |
| 20260502234136 | 26 | 41 | 4.8 | 12.9 | 0.00 | 0.00 | 0.00 | 27 | 1013.0 |
| 20260502234010 | 26 | 8 | 4.8 | 12.9 | 0.00 | 0.00 | 0.00 | 28 | 1013.0 |
| 20260502233922 | 26 | 347 | 4.8 | 12.9 | 0.00 | 0.00 | 0.00 | 28 | 1013.0 |
| 20260502233812 | 26 | 11 | 3.2 | 12.9 | 0.00 | 0.00 | 0.00 | 27 | 1013.1 |
| 20260502233718 | 26 | 23 | 3.2 | 12.9 | 0.00 | 0.00 | 0.00 | 27 | 1013.1 |
| 20260502233702 | 26 | 19 | 3.2 | 12.9 | 0.00 | 0.00 | 0.00 | 27 | 1013.1 |
| 20260502233515 | 26 | 13 | 3.2 | 12.9 | 0.00 | 0.00 | 0.00 | 26 | 1013.1 |
| 20260502233421 | 26 | 4 | 3.2 | 12.9 | 0.00 | 0.00 | 0.00 | 27 | 1013.1 |
| 20260502233326 | 26 | 4 | 3.2 | 12.9 | 0.00 | 0.00 | 0.00 | 27 | 1013.2 |
| 20260502233234 | 26 | 12 | 4.8 | 12.9 | 0.00 | 0.00 | 0.00 | 28 | 1013.1 |
| 20260502233147 | 26 | 354 | 4.8 | 12.9 | 0.00 | 0.00 | 0.00 | 28 | 1013.1 |
| 20260502233013 | 26 | 17 | 4.8 | 12.9 | 0.00 | 0.00 | 0.00 | 28 | 1013.1 |
| 20260502232926 | 26 | 359 | 4.8 | 12.9 | 0.00 | 0.00 | 0.00 | 28 | 1013.1 |
| 20260502232811 | 26 | 18 | 4.8 | 12.9 | 0.00 | 0.00 | 0.00 | 27 | 1013.2 |
| 20260502232709 | 26 | 354 | 4.8 | 12.9 | 0.00 | 0.00 | 0.00 | 28 | 1013.1 |
| 20260502232641 | 26 | 4 | 4.8 | 12.9 | 0.00 | 0.00 | 0.00 | 28 | 1013.1 |
| 20260502232536 | 26 | 12 | 4.8 | 12.9 | 0.00 | 0.00 | 0.00 | 28 | 1013.1 |
| 20260502232420 | 26 | 12 | 4.8 | 12.9 | 0.00 | 0.00 | 0.00 | 31 | 1013.1 |
| 20260502232333 | 26 | 18 | 4.8 | 12.9 | 0.00 | 0.00 | 0.00 | 30 | 1013.1 |
| 20260502232218 | 26 | 25 | 4.8 | 12.9 | 0.00 | 0.00 | 0.00 | 28 | 1013.1 |
| 20260502232140 | 26 | 16 | 4.8 | 12.9 | 0.00 | 0.00 | 0.00 | 30 | 1013.1 |
| 20260502232018 | 26 | 26 | 4.8 | 12.9 | 0.00 | 0.00 | 0.00 | 28 | 1013.2 |
| 20260502231924 | 26 | 13 | 3.2 | 12.9 | 0.00 | 0.00 | 0.00 | 27 | 1013.2 |
| 20260502231809 | 26 | 17 | 3.2 | 12.9 | 0.00 | 0.00 | 0.00 | 26 | 1013.2 |
| 20260502231715 | 26 | 12 | 3.2 | 12.9 | 0.00 | 0.00 | 0.00 | 27 | 1013.1 |
| 20260502231638 | 26 | 15 | 3.2 | 12.9 | 0.00 | 0.00 | 0.00 | 28 | 1013.1 |
| 20260502231532 | 26 | 14 | 3.2 | 12.9 | 0.00 | 0.00 | 0.00 | 27 | 1013.2 |
| 20260502231440 | 26 | 26 | 4.8 | 12.9 | 0.00 | 0.00 | 0.00 | 27 | 1013.2 |
| 20260502231344 | 26 | 4 | 4.8 | 12.9 | 0.00 | 0.00 | 0.00 | 27 | 1013.2 |
| 20260502231218 | 26 | 18 | 4.8 | 12.9 | 0.00 | 0.00 | 0.00 | 27 | 1013.2 |
| 20260502231129 | 26 | 14 | 3.2 | 9.7 | 0.00 | 0.00 | 0.00 | 27 | 1013.2 |
| 20260502231030 | 26 | 25 | 4.8 | 9.7 | 0.00 | 0.00 | 0.00 | 28 | 1013.2 |
| 20260502230936 | 26 | 50 | 4.8 | 9.7 | 0.00 | 0.00 | 0.00 | 28 | 1013.2 |
| 20260502230820 | 26 | 29 | 3.2 | 11.3 | 0.00 | 0.00 | 0.00 | 27 | 1013.2 |
| 20260502230710 | 26 | 23 | 3.2 | 11.3 | 0.00 | 0.00 | 0.00 | 26 | 1013.2 |
| 20260502230632 | 26 | 20 | 4.8 | 11.3 | 0.00 | 0.00 | 0.00 | 28 | 1013.2 |
| 20260502230533 | 26 | 41 | 4.8 | 11.3 | 0.00 | 0.00 | 0.00 | 30 | 1013.3 |
| 20260502230419 | 26 | 23 | 3.2 | 11.3 | 0.00 | 0.00 | 0.00 | 26 | 1013.2 |
| 20260502230341 | 26 | 10 | 4.8 | 11.3 | 0.00 | 0.00 | 0.00 | 27 | 1013.2 |
| 20260502230231 | 26 | 14 | 4.8 | 11.3 | 0.00 | 0.00 | 0.00 | 28 | 1013.2 |
| 20260502230153 | 26 | 29 | 6.4 | 11.3 | 0.00 | 0.00 | 0.00 | 31 | 1013.2 |
| 20260502230025 | 26 | 27 | 6.4 | 11.3 | 0.00 | 0.00 | 0.00 | 34 | 1013.3 |
| 20260502225910 | 26 | 52 | 6.4 | 12.9 | 0.00 | 0.00 | 0.00 | 32 | 1013.2 |
| 20260502225816 | 26 | 39 | 4.8 | 14.5 | 0.00 | 0.00 | 0.00 | 31 | 1013.2 |
| 20260502225722 | 26 | 52 | 4.8 | 14.5 | 0.00 | 0.00 | 0.00 | 29 | 1013.3 |
| 20260502225636 | 26 | 11 | 4.8 | 14.5 | 0.00 | 0.00 | 0.00 | 28 | 1013.3 |
| 20260502225515 | 26 | 43 | 3.2 | 14.5 | 0.00 | 0.00 | 0.00 | 26 | 1013.3 |
| 20260502225420 | 26 | 14 | 3.2 | 14.5 | 0.00 | 0.00 | 0.00 | 26 | 1013.3 |
| 20260502225333 | 26 | 24 | 3.2 | 14.5 | 0.00 | 0.00 | 0.00 | 26 | 1013.3 |
| 20260502225219 | 26 | 33 | 4.8 | 14.5 | 0.00 | 0.00 | 0.00 | 27 | 1013.3 |
| 20260502225134 | 26 | 18 | 6.4 | 14.5 | 0.00 | 0.00 | 0.00 | 27 | 1013.3 |
| 20260502225012 | 26 | 39 | 6.4 | 16.1 | 0.00 | 0.00 | 0.00 | 30 | 1013.3 |
| 20260502224917 | 26 | 22 | 4.8 | 17.7 | 0.00 | 0.00 | 0.00 | 28 | 1013.3 |
| 20260502224823 | 26 | 21 | 4.8 | 17.7 | 0.00 | 0.00 | 0.00 | 29 | 1013.3 |
| 20260502224719 | 26 | 27 | 4.8 | 17.7 | 0.00 | 0.00 | 0.00 | 28 | 1013.3 |
| 20260502224629 | 26 | 23 | 6.4 | 17.7 | 0.00 | 0.00 | 0.00 | 29 | 1013.3 |
| 20260502224544 | 26 | 20 | 6.4 | 17.7 | 0.00 | 0.00 | 0.00 | 30 | 1013.3 |
| 20260502224413 | 26 | 56 | 6.4 | 17.7 | 0.00 | 0.00 | 0.00 | 30 | 1013.3 |
| 20260502224326 | 26 | 38 | 9.7 | 17.7 | 0.00 | 0.00 | 0.00 | 30 | 1013.3 |
| 20260502224212 | 26 | 41 | 11.3 | 17.7 | 0.00 | 0.00 | 0.00 | 29 | 1013.4 |
| 20260502224145 | 26 | 43 | 8.0 | 17.7 | 0.00 | 0.00 | 0.00 | 29 | 1013.3 |
| 20260502224019 | 26 | 22 | 4.8 | 16.1 | 0.00 | 0.00 | 0.00 | 27 | 1013.4 |
| 20260502223925 | 26 | 17 | 3.2 | 16.1 | 0.00 | 0.00 | 0.00 | 29 | 1013.3 |
| 20260502223838 | 26 | 21 | 3.2 | 16.1 | 0.00 | 0.00 | 0.00 | 28 | 1013.3 |
| 20260502223718 | 26 | 28 | 8.0 | 16.1 | 0.00 | 0.00 | 0.00 | 28 | 1013.3 |
| 20260502223634 | 26 | 14 | 8.0 | 16.1 | 0.00 | 0.00 | 0.00 | 31 | 1013.4 |
| 20260502223512 | 26 | 50 | 6.4 | 16.1 | 0.00 | 0.00 | 0.00 | 27 | 1013.4 |
| 20260502223417 | 26 | 33 | 4.8 | 16.1 | 0.00 | 0.00 | 0.00 | 27 | 1013.3 |
| 20260502223314 | 26 | 23 | 3.2 | 16.1 | 0.00 | 0.00 | 0.00 | 25 | 1013.4 |
| 20260502223215 | 26 | 13 | 3.2 | 16.1 | 0.00 | 0.00 | 0.00 | 26 | 1013.5 |
| 20260502223125 | 26 | 25 | 3.2 | 16.1 | 0.00 | 0.00 | 0.00 | 26 | 1013.5 |
| 20260502223020 | 26 | 29 | 4.8 | 16.1 | 0.00 | 0.00 | 0.00 | 25 | 1013.6 |
| 20260502222933 | 26 | 4 | 6.4 | 16.1 | 0.00 | 0.00 | 0.00 | 26 | 1013.5 |
| 20260502222830 | 26 | 53 | 8.0 | 16.1 | 0.00 | 0.00 | 0.00 | 29 | 1013.5 |
| 20260502222717 | 26 | 55 | 6.4 | 14.5 | 0.00 | 0.00 | 0.00 | 28 | 1013.6 |
| 20260502222633 | 26 | 25 | 4.8 | 14.5 | 0.00 | 0.00 | 0.00 | 27 | 1013.5 |
| 20260502222528 | 26 | 53 | 4.8 | 14.5 | 0.00 | 0.00 | 0.00 | 27 | 1013.7 |
| 20260502222440 | 26 | 9 | 4.8 | 14.5 | 0.00 | 0.00 | 0.00 | 26 | 1013.6 |
| 20260502222317 | 26 | 27 | 4.8 | 14.5 | 0.00 | 0.00 | 0.00 | 28 | 1013.7 |
| 20260502222212 | 26 | 21 | 6.4 | 14.5 | 0.00 | 0.00 | 0.00 | 29 | 1013.7 |
| 20260502222123 | 26 | 27 | 6.4 | 14.5 | 0.00 | 0.00 | 0.00 | 31 | 1013.7 |
| 20260502222022 | 26 | 35 | 4.8 | 12.9 | 0.00 | 0.00 | 0.00 | 29 | 1013.8 |
| 20260502221915 | 26 | 25 | 4.8 | 12.9 | 0.00 | 0.00 | 0.00 | 29 | 1013.8 |
| 20260502221820 | 26 | 4 | 3.2 | 12.9 | 0.00 | 0.00 | 0.00 | 27 | 1013.8 |
| 20260502221714 | 26 | 16 | 3.2 | 12.9 | 0.00 | 0.00 | 0.00 | 28 | 1013.8 |
| 20260502221626 | 26 | 14 | 6.4 | 14.5 | 0.00 | 0.00 | 0.00 | 26 | 1013.8 |
| 20260502221542 | 26 | 28 | 8.0 | 16.1 | 0.00 | 0.00 | 0.00 | 27 | 1013.8 |
| 20260502221410 | 26 | 34 | 4.8 | 16.1 | 0.00 | 0.00 | 0.00 | 27 | 1013.8 |
| 20260502221323 | 26 | 15 | 4.8 | 16.1 | 0.00 | 0.00 | 0.00 | 26 | 1013.8 |
| 20260502221209 | 26 | 35 | 6.4 | 16.1 | 0.00 | 0.00 | 0.00 | 28 | 1013.8 |
| 20260502221125 | 26 | 35 | 4.8 | 17.7 | 0.00 | 0.00 | 0.00 | 28 | 1013.8 |
| 20260502221026 | 26 | 42 | 6.4 | 17.7 | 0.00 | 0.00 | 0.00 | 28 | 1013.8 |
| 20260502220912 | 26 | 16 | 9.7 | 17.7 | 0.00 | 0.00 | 0.00 | 30 | 1013.9 |
| 20260502220822 | 26 | 56 | 9.7 | 17.7 | 0.00 | 0.00 | 0.00 | 31 | 1013.9 |
| 20260502220718 | 26 | 40 | 8.0 | 17.7 | 0.00 | 0.00 | 0.00 | 30 | 1013.9 |
| 20260502220651 | 26 | 56 | 8.0 | 17.7 | 0.00 | 0.00 | 0.00 | 32 | 1013.9 |
| 20260502220524 | 26 | 21 | 9.7 | 17.7 | 0.00 | 0.00 | 0.00 | 29 | 1013.9 |
| 20260502220410 | 26 | 45 | 9.7 | 17.7 | 0.00 | 0.00 | 0.00 | 26 | 1013.9 |
| 20260502220322 | 26 | 41 | 8.0 | 17.7 | 0.00 | 0.00 | 0.00 | 30 | 1013.9 |
| 20260502220232 | 26 | 359 | 6.4 | 17.7 | 0.00 | 0.00 | 0.00 | 30 | 1013.9 |
| 20260502220134 | 26 | 44 | 6.4 | 17.7 | 0.00 | 0.00 | 0.00 | 28 | 1013.9 |
| 20260502220009 | 26 | 24 | 6.4 | 17.7 | 0.00 | 0.00 | 0.00 | 30 | 1014.0 |
| 20260502215926 | 26 | 16 | 6.4 | 17.7 | 0.00 | 0.00 | 0.00 | 30 | 1013.9 |
| 20260502215811 | 26 | 8 | 9.7 | 17.7 | 0.00 | 0.00 | 0.00 | 28 | 1013.9 |
| 20260502215717 | 26 | 41 | 11.3 | 17.7 | 0.00 | 0.00 | 0.00 | 30 | 1014.0 |
| 20260502215705 | 26 | 45 | 9.7 | 17.7 | 0.00 | 0.00 | 0.00 | 31 | 1014.0 |
| 20260502215510 | 26 | 28 | 4.8 | 16.1 | 0.00 | 0.00 | 0.00 | 30 | 1014.0 |
| 20260502215442 | 26 | 13 | 6.4 | 16.1 | 0.00 | 0.00 | 0.00 | 29 | 1014.0 |
| 20260502215327 | 26 | 8 | 8.0 | 16.1 | 0.00 | 0.00 | 0.00 | 29 | 1014.0 |
| 20260502215212 | 26 | 41 | 6.4 | 14.5 | 0.00 | 0.00 | 0.00 | 28 | 1014.0 |
| 20260502215135 | 26 | 33 | 6.4 | 14.5 | 0.00 | 0.00 | 0.00 | 26 | 1014.0 |
| 20260502215013 | 26 | 48 | 8.0 | 16.1 | 0.00 | 0.00 | 0.00 | 31 | 1014.0 |
| 20260502214926 | 26 | 36 | 6.4 | 16.1 | 0.00 | 0.00 | 0.00 | 30 | 1014.0 |
| 20260502214812 | 25 | 29 | 6.4 | 16.1 | 0.00 | 0.00 | 0.00 | 24 | 1014.0 |
| 20260502214716 | 25 | 33 | 6.4 | 16.1 | 0.00 | 0.00 | 0.00 | 27 | 1014.0 |
| 20260502214632 | 25 | 4 | 6.4 | 16.1 | 0.00 | 0.00 | 0.00 | 28 | 1014.1 |
| 20260502214534 | 25 | 346 | 8.0 | 19.3 | 0.00 | 0.00 | 0.00 | 28 | 1014.0 |
| 20260502214423 | 25 | 56 | 8.0 | 19.3 | 0.00 | 0.00 | 0.00 | 30 | 1014.1 |
| 20260502214330 | 25 | 38 | 8.0 | 19.3 | 0.00 | 0.00 | 0.00 | 29 | 1014.1 |
| 20260502214223 | 25 | 27 | 8.0 | 19.3 | 0.00 | 0.00 | 0.00 | 30 | 1014.2 |
| 20260502214147 | 25 | 23 | 6.4 | 19.3 | 0.00 | 0.00 | 0.00 | 30 | 1014.2 |
| 20260502214020 | 25 | 39 | 8.0 | 19.3 | 0.00 | 0.00 | 0.00 | 29 | 1014.2 |
| 20260502213933 | 25 | 64 | 9.7 | 19.3 | 0.00 | 0.00 | 0.00 | 28 | 1014.2 |
| 20260502213823 | 25 | 52 | 12.9 | 19.3 | 0.00 | 0.00 | 0.00 | 28 | 1014.2 |
| 20260502213719 | 25 | 47 | 11.3 | 19.3 | 0.00 | 0.00 | 0.00 | 30 | 1014.3 |
| 20260502213629 | 25 | 48 | 11.3 | 19.3 | 0.00 | 0.00 | 0.00 | 27 | 1014.3 |
| 20260502213545 | 25 | 72 | 8.0 | 19.3 | 0.00 | 0.00 | 0.00 | 27 | 1014.3 |
| 20260502213428 | 25 | 49 | 4.8 | 19.3 | 0.00 | 0.00 | 0.00 | 27 | 1014.3 |
| 20260502213314 | 25 | 35 | 1.6 | 19.3 | 0.00 | 0.00 | 0.00 | 27 | 1014.3 |
| 20260502213212 | 25 | 348 | 1.6 | 19.3 | 0.00 | 0.00 | 0.00 | 26 | 1014.3 |
| 20260502213144 | 25 | 349 | 3.2 | 19.3 | 0.00 | 0.00 | 0.00 | 25 | 1014.3 |
| 20260502213040 | 25 | 52 | 6.4 | 19.3 | 0.00 | 0.00 | 0.00 | 26 | 1014.4 |
| 20260502212925 | 25 | 40 | 8.0 | 19.3 | 0.00 | 0.00 | 0.00 | 29 | 1014.4 |
| 20260502212810 | 25 | 37 | 9.7 | 19.3 | 0.00 | 0.00 | 0.00 | 28 | 1014.4 |
| 20260502212710 | 25 | 48 | 14.5 | 19.3 | 0.00 | 0.00 | 0.00 | 27 | 1014.4 |
| 20260502212642 | 25 | 56 | 14.5 | 19.3 | 0.00 | 0.00 | 0.00 | 27 | 1014.4 |
| 20260502212524 | 25 | 43 | 9.7 | 19.3 | 0.00 | 0.00 | 0.00 | 29 | 1014.4 |
| 20260502212449 | 25 | 42 | 6.4 | 19.3 | 0.00 | 0.00 | 0.00 | 31 | 1014.3 |
| 20260502212313 | 25 | 112 | 4.8 | 16.1 | 0.00 | 0.00 | 0.00 | 29 | 1014.4 |
| 20260502212236 | 25 | 110 | 4.8 | 16.1 | 0.00 | 0.00 | 0.00 | 32 | 1014.4 |
| 20260502212120 | 25 | 109 | 4.8 | 16.1 | 0.00 | 0.00 | 0.00 | 30 | 1014.4 |
| 20260502212026 | 25 | 73 | 6.4 | 16.1 | 0.00 | 0.00 | 0.00 | 28 | 1014.5 |
| 20260502211911 | 25 | 59 | 8.0 | 16.1 | 0.00 | 0.00 | 0.00 | 28 | 1014.5 |
| 20260502211843 | 25 | 65 | 8.0 | 16.1 | 0.00 | 0.00 | 0.00 | 30 | 1014.5 |
| 20260502211709 | 25 | 98 | 4.8 | 17.7 | 0.00 | 0.00 | 0.00 | 30 | 1014.5 |
| 20260502211620 | 25 | 95 | 3.2 | 17.7 | 0.00 | 0.00 | 0.00 | 27 | 1014.5 |
| 20260502211514 | 25 | 88 | 6.4 | 17.7 | 0.00 | 0.00 | 0.00 | 25 | 1014.6 |
| 20260502211420 | 25 | 89 | 8.0 | 17.7 | 0.00 | 0.00 | 0.00 | 31 | 1014.6 |
| 20260502211310 | 25 | 91 | 6.4 | 17.7 | 0.00 | 0.00 | 0.00 | 27 | 1014.6 |
| 20260502211223 | 25 | 62 | 6.4 | 19.3 | 0.00 | 0.00 | 0.00 | 28 | 1014.6 |
| 20260502211138 | 25 | 54 | 6.4 | 19.3 | 0.00 | 0.00 | 0.00 | 28 | 1014.6 |
| 20260502211011 | 25 | 43 | 8.0 | 19.3 | 0.00 | 0.00 | 0.00 | 26 | 1014.7 |
| 20260502210924 | 25 | 23 | 9.7 | 19.3 | 0.00 | 0.00 | 0.00 | 29 | 1014.7 |
| 20260502210814 | 25 | 75 | 11.3 | 19.3 | 0.00 | 0.00 | 0.00 | 29 | 1014.7 |
| 20260502210731 | 25 | 64 | 11.3 | 19.3 | 0.00 | 0.00 | 0.00 | 29 | 1014.7 |
| 20260502210621 | 25 | 75 | 11.3 | 19.3 | 0.00 | 0.00 | 0.00 | 28 | 1014.7 |
| 20260502210515 | 25 | 85 | 12.9 | 19.3 | 0.00 | 0.00 | 0.00 | 27 | 1014.7 |
| 20260502210428 | 25 | 78 | 14.5 | 19.3 | 0.00 | 0.00 | 0.00 | 28 | 1014.7 |
| 20260502210314 | 25 | 73 | 9.7 | 16.1 | 0.00 | 0.00 | 0.00 | 31 | 1014.7 |
| 20260502210214 | 25 | 37 | 8.0 | 14.5 | 0.00 | 0.00 | 0.00 | 32 | 1014.7 |
| 20260502210124 | 25 | 58 | 6.4 | 16.1 | 0.00 | 0.00 | 0.00 | 30 | 1014.7 |
| 20260502210019 | 25 | 167 | 6.4 | 16.1 | 0.00 | 0.00 | 0.00 | 32 | 1014.7 |
| 20260502205925 | 25 | 125 | 4.8 | 16.1 | 0.00 | 0.00 | 0.00 | 29 | 1014.7 |
| 20260502205810 | 25 | 145 | 6.4 | 16.1 | 0.00 | 0.00 | 0.00 | 27 | 1014.7 |
| 20260502205744 | 25 | 37 | 6.4 | 16.1 | 0.00 | 0.00 | 0.00 | 32 | 1014.8 |
| 20260502205640 | 25 | 56 | 4.8 | 16.1 | 0.00 | 0.00 | 0.00 | 30 | 1014.8 |
| 20260502205536 | 25 | 40 | 6.4 | 16.1 | 0.00 | 0.00 | 0.00 | 28 | 1014.8 |
| 20260502205421 | 25 | 38 | 9.7 | 16.1 | 0.00 | 0.00 | 0.00 | 29 | 1014.8 |
| 20260502205327 | 25 | 18 | 9.7 | 17.7 | 0.00 | 0.00 | 0.00 | 29 | 1014.8 |
| 20260502205212 | 25 | 39 | 6.4 | 17.7 | 0.00 | 0.00 | 0.00 | 27 | 1014.7 |
| 20260502205155 | 25 | 22 | 6.4 | 17.7 | 0.00 | 0.00 | 0.00 | 30 | 1014.8 |
| 20260502205028 | 25 | 14 | 4.8 | 17.7 | 0.00 | 0.00 | 0.00 | 28 | 1014.8 |
| 20260502204908 | 25 | 16 | 6.4 | 17.7 | 0.00 | 0.00 | 0.00 | 28 | 1014.9 |
| 20260502204814 | 25 | 23 | 9.7 | 17.7 | 0.00 | 0.00 | 0.00 | 29 | 1014.9 |
| 20260502204711 | 25 | 36 | 9.7 | 17.7 | 0.00 | 0.00 | 0.00 | 31 | 1015.0 |
| 20260502204622 | 25 | 62 | 11.3 | 17.7 | 0.00 | 0.00 | 0.00 | 29 | 1015.0 |
| 20260502204536 | 25 | 48 | 12.9 | 17.7 | 0.00 | 0.00 | 0.00 | 32 | 1015.0 |
| 20260502204428 | 25 | 52 | 9.7 | 17.7 | 0.00 | 0.00 | 0.00 | 33 | 1015.0 |
| 20260502204318 | 25 | 48 | 8.0 | 17.7 | 0.00 | 0.00 | 0.00 | 31 | 1015.0 |
| 20260502204213 | 25 | 345 | 6.4 | 17.7 | 0.00 | 0.00 | 0.00 | 32 | 1015.0 |
| 20260502204124 | 25 | 25 | 4.8 | 11.3 | 0.00 | 0.00 | 0.00 | 29 | 1015.1 |
| 20260502204019 | 25 | 4 | 3.2 | 8.0 | 0.00 | 0.00 | 0.00 | 28 | 1015.0 |
| 20260502203921 | 25 | 37 | 3.2 | 9.7 | 0.00 | 0.00 | 0.00 | 28 | 1015.1 |
| 20260502203810 | 25 | 11 | 4.8 | 9.7 | 0.00 | 0.00 | 0.00 | 28 | 1015.1 |
| 20260502203724 | 24 | 16 | 4.8 | 9.7 | 0.00 | 0.00 | 0.00 | 30 | 1015.1 |
| 20260502203639 | 24 | 359 | 3.2 | 9.7 | 0.00 | 0.00 | 0.00 | 30 | 1015.1 |
| 20260502203509 | 24 | 43 | 3.2 | 12.9 | 0.00 | 0.00 | 0.00 | 29 | 1015.1 |
| 20260502203416 | 24 | 10 | 4.8 | 14.5 | 0.00 | 0.00 | 0.00 | 31 | 1015.2 |
| 20260502203328 | 24 | 66 | 4.8 | 14.5 | 0.00 | 0.00 | 0.00 | 31 | 1015.1 |
| 20260502203239 | 24 | 31 | 6.4 | 14.5 | 0.00 | 0.00 | 0.00 | 29 | 1015.1 |
| 20260502203141 | 24 | 15 | 4.8 | 14.5 | 0.00 | 0.00 | 0.00 | 31 | 1015.1 |
| 20260502203014 | 24 | 39 | 3.2 | 16.1 | 0.00 | 0.00 | 0.00 | 32 | 1015.1 |
| 20260502202928 | 24 | 43 | 1.6 | 16.1 | 0.00 | 0.00 | 0.00 | 30 | 1015.1 |
| 20260502202830 | 24 | 345 | 3.2 | 16.1 | 0.00 | 0.00 | 0.00 | 29 | 1015.1 |
| 20260502202738 | 24 | 21 | 8.0 | 16.1 | 0.00 | 0.00 | 0.00 | 29 | 1015.1 |
| 20260502202649 | 24 | 37 | 8.0 | 16.1 | 0.00 | 0.00 | 0.00 | 29 | 1015.1 |
| 20260502202534 | 24 | 34 | 8.0 | 16.1 | 0.00 | 0.00 | 0.00 | 31 | 1015.1 |
| 20260502202419 | 24 | 52 | 8.0 | 16.1 | 0.00 | 0.00 | 0.00 | 31 | 1015.1 |
| 20260502202324 | 24 | 51 | 8.0 | 19.3 | 0.00 | 0.00 | 0.00 | 30 | 1015.1 |
| 20260502202211 | 24 | 36 | 9.7 | 19.3 | 0.00 | 0.00 | 0.00 | 30 | 1015.2 |
| 20260502202122 | 24 | 13 | 9.7 | 19.3 | 0.00 | 0.00 | 0.00 | 31 | 1015.1 |
| 20260502202020 | 24 | 36 | 8.0 | 19.3 | 0.00 | 0.00 | 0.00 | 32 | 1015.2 |
| 20260502201926 | 24 | 33 | 8.0 | 19.3 | 0.00 | 0.00 | 0.00 | 31 | 1015.2 |
| 20260502201839 | 24 | 37 | 8.0 | 19.3 | 0.00 | 0.00 | 0.00 | 32 | 1015.2 |
| 20260502201714 | 24 | 24 | 8.0 | 19.3 | 0.00 | 0.00 | 0.00 | 32 | 1015.2 |
| 20260502201645 | 24 | 28 | 9.7 | 19.3 | 0.00 | 0.00 | 0.00 | 33 | 1015.2 |
| 20260502201520 | 24 | 64 | 12.9 | 19.3 | 0.00 | 0.00 | 0.00 | 32 | 1015.3 |
| 20260502201427 | 24 | 41 | 11.3 | 16.1 | 0.00 | 0.00 | 0.00 | 33 | 1015.3 |
| 20260502201312 | 24 | 20 | 6.4 | 16.1 | 0.00 | 0.00 | 0.00 | 35 | 1015.2 |
| 20260502201209 | 23 | 37 | 4.8 | 16.1 | 0.00 | 0.00 | 0.00 | 32 | 1015.2 |
| 20260502201120 | 23 | 10 | 4.8 | 16.1 | 0.00 | 0.00 | 0.00 | 31 | 1015.2 |
| 20260502201014 | 23 | 34 | 4.8 | 16.1 | 0.00 | 0.00 | 0.00 | 31 | 1015.3 |
| 20260502200921 | 23 | 8 | 4.8 | 16.1 | 0.00 | 0.00 | 0.00 | 31 | 1015.3 |
| 20260502200810 | 23 | 26 | 8.0 | 16.1 | 0.00 | 0.00 | 0.00 | 34 | 1015.3 |
| 20260502200733 | 23 | 51 | 6.4 | 16.1 | 0.00 | 0.00 | 0.00 | 33 | 1015.3 |
| 20260502200623 | 23 | 9 | 4.8 | 14.5 | 0.00 | 0.00 | 0.00 | 30 | 1015.4 |
| 20260502200517 | 23 | 350 | 4.8 | 20.9 | 0.00 | 0.00 | 0.00 | 31 | 1015.3 |
| 20260502200431 | 23 | 16 | 3.2 | 20.9 | 0.00 | 0.00 | 0.00 | 34 | 1015.4 |
| 20260502200316 | 23 | 10 | 3.2 | 20.9 | 0.00 | 0.00 | 0.00 | 32 | 1015.4 |
| 20260502200215 | 23 | 27 | 4.8 | 20.9 | 0.00 | 0.00 | 0.00 | 32 | 1015.5 |
| 20260502200126 | 23 | 17 | 4.8 | 20.9 | 0.00 | 0.00 | 0.00 | 30 | 1015.5 |
| 20260502200019 | 23 | 332 | 6.4 | 20.9 | 0.00 | 0.00 | 0.00 | 33 | 1015.5 |
| 20260502195925 | 23 | 34 | 6.4 | 20.9 | 0.00 | 0.00 | 0.00 | 32 | 1015.5 |
| 20260502195811 | 23 | 9 | 11.3 | 20.9 | 0.00 | 0.00 | 0.00 | 32 | 1015.5 |
| 20260502195715 | 23 | 43 | 12.9 | 20.9 | 0.00 | 0.00 | 0.00 | 36 | 1015.5 |
| 20260502195619 | 23 | 15 | 11.3 | 17.7 | 0.00 | 0.00 | 0.00 | 35 | 1015.6 |
| 20260502195522 | 23 | 36 | 8.0 | 17.7 | 0.00 | 0.00 | 0.00 | 34 | 1015.6 |
| 20260502195447 | 23 | 52 | 4.8 | 16.1 | 0.00 | 0.00 | 0.00 | 33 | 1015.5 |
| 20260502195311 | 23 | 43 | 4.8 | 16.1 | 0.00 | 0.00 | 0.00 | 32 | 1015.6 |
| 20260502195235 | 23 | 37 | 8.0 | 16.1 | 0.00 | 0.00 | 0.00 | 32 | 1015.6 |
| 20260502195146 | 23 | 68 | 9.7 | 16.1 | 0.00 | 0.00 | 0.00 | 32 | 1015.6 |
| 20260502195024 | 23 | 52 | 6.4 | 16.1 | 0.00 | 0.00 | 0.00 | 34 | 1015.6 |
| 20260502194921 | 23 | 12 | 4.8 | 11.3 | 0.00 | 0.00 | 0.00 | 33 | 1015.6 |
| 20260502194826 | 23 | 28 | 4.8 | 11.3 | 0.00 | 0.00 | 0.00 | 31 | 1015.6 |
| 20260502194714 | 23 | 25 | 3.2 | 11.3 | 0.00 | 0.00 | 0.00 | 30 | 1015.6 |
| 20260502194622 | 23 | 359 | 4.8 | 11.3 | 0.00 | 0.00 | 0.00 | 30 | 1015.6 |
| 20260502194516 | 23 | 338 | 4.8 | 12.9 | 0.00 | 0.00 | 0.00 | 32 | 1015.6 |
| 20260502194434 | 23 | 47 | 4.8 | 12.9 | 0.00 | 0.00 | 0.00 | 32 | 1015.6 |
| 20260502194319 | 23 | 4 | 4.8 | 14.5 | 0.00 | 0.00 | 0.00 | 33 | 1015.7 |
| 20260502194215 | 23 | 56 | 4.8 | 14.5 | 0.00 | 0.00 | 0.00 | 32 | 1015.7 |
| 20260502194138 | 23 | 67 | 6.4 | 14.5 | 0.00 | 0.00 | 0.00 | 30 | 1015.7 |
| 20260502194043 | 23 | 43 | 6.4 | 14.5 | 0.00 | 0.00 | 0.00 | 30 | 1015.7 |
| 20260502193936 | 23 | 36 | 4.8 | 14.5 | 0.00 | 0.00 | 0.00 | 37 | 1015.7 |
| 20260502193821 | 23 | 68 | 6.4 | 14.5 | 0.00 | 0.00 | 0.00 | 34 | 1015.8 |
| 20260502193710 | 23 | 144 | 8.0 | 14.5 | 0.00 | 0.00 | 0.00 | 31 | 1015.8 |
| 20260502193634 | 23 | 105 | 9.7 | 14.5 | 0.00 | 0.00 | 0.00 | 38 | 1015.8 |
| 20260502193528 | 22 | 72 | 6.4 | 11.3 | 0.00 | 0.00 | 0.00 | 33 | 1015.8 |
| 20260502193434 | 22 | 47 | 3.2 | 11.3 | 0.00 | 0.00 | 0.00 | 33 | 1015.8 |
| 20260502193346 | 22 | 21 | 3.2 | 11.3 | 0.00 | 0.00 | 0.00 | 37 | 1015.9 |
| 20260502193210 | 22 | 43 | 3.2 | 11.3 | 0.00 | 0.00 | 0.00 | 35 | 1015.9 |
| 20260502193137 | 22 | 43 | 3.2 | 11.3 | 0.00 | 0.00 | 0.00 | 36 | 1015.9 |
| 20260502193051 | 22 | 303 | 4.8 | 11.3 | 0.00 | 0.00 | 0.00 | 33 | 1015.8 |
| 20260502193021 | 22 | 303 | 4.8 | 11.3 | 0.00 | 0.00 | 0.00 | 33 | 1015.8 |
| 20260502192934 | 22 | 289 | 3.2 | 11.3 | 0.00 | 0.00 | 0.00 | 35 | 1015.9 |
| 20260502192818 | 22 | 343 | 3.2 | 9.7 | 0.00 | 0.00 | 0.00 | 37 | 1015.8 |
| 20260502192724 | 22 | 341 | 3.2 | 9.7 | 0.00 | 0.00 | 0.00 | 36 | 1015.9 |
| 20260502192637 | 22 | 314 | 3.2 | 9.7 | 0.00 | 0.00 | 0.00 | 36 | 1015.9 |
| 20260502192516 | 22 | 332 | 4.8 | 9.7 | 0.00 | 0.00 | 0.00 | 36 | 1016.0 |
| 20260502192418 | 22 | 43 | 3.2 | 9.7 | 0.00 | 0.00 | 0.00 | 35 | 1016.0 |
| 20260502192324 | 22 | 33 | 3.2 | 9.7 | 0.00 | 0.00 | 0.00 | 36 | 1016.0 |
| 20260502192209 | 22 | 21 | 1.6 | 9.7 | 0.00 | 0.00 | 0.00 | 36 | 1016.0 |
| 20260502192133 | 22 | 36 | 3.2 | 9.7 | 0.00 | 0.00 | 0.00 | 36 | 1016.0 |
| 20260502192019 | 22 | 345 | 4.8 | 9.7 | 0.00 | 0.00 | 0.00 | 35 | 1016.1 |
| 20260502191908 | 22 | 42 | 3.2 | 9.7 | 0.00 | 0.00 | 0.00 | 34 | 1016.2 |
| 20260502191820 | 22 | 4 | 3.2 | 6.4 | 0.00 | 0.00 | 0.00 | 34 | 1016.2 |
| 20260502191716 | 22 | 345 | 3.2 | 6.4 | 0.00 | 0.00 | 0.00 | 35 | 1016.2 |
| 20260502191627 | 22 | 354 | 1.6 | 6.4 | 0.00 | 0.00 | 0.00 | 37 | 1016.2 |
| 20260502191521 | 22 | 354 | 1.6 | 4.8 | 0.00 | 0.00 | 0.00 | 36 | 1016.3 |
| 20260502191455 | 22 | 39 | 3.2 | 4.8 | 0.00 | 0.00 | 0.00 | 37 | 1016.2 |
| 20260502191344 | 21 | 46 | 3.2 | 6.4 | 0.00 | 0.00 | 0.00 | 36 | 1016.2 |
| 20260502191208 | 21 | 32 | 1.6 | 8.0 | 0.00 | 0.00 | 0.00 | 37 | 1016.2 |
| 20260502191131 | 21 | 54 | 1.6 | 12.9 | 0.00 | 0.00 | 0.00 | 34 | 1016.3 |
| 20260502191025 | 21 | 46 | 1.6 | 12.9 | 0.00 | 0.00 | 0.00 | 39 | 1016.3 |
| 20260502190910 | 21 | 354 | 1.6 | 12.9 | 0.00 | 0.00 | 0.00 | 41 | 1016.2 |
| 20260502190822 | 21 | 4 | 1.6 | 12.9 | 0.00 | 0.00 | 0.00 | 41 | 1016.3 |
| 20260502190732 | 21 | 4 | 3.2 | 12.9 | 0.00 | 0.00 | 0.00 | 38 | 1016.2 |
| 20260502190655 | 21 | 337 | 3.2 | 12.9 | 0.00 | 0.00 | 0.00 | 39 | 1016.3 |
| 20260502190520 | 21 | 294 | 4.8 | 12.9 | 0.00 | 0.00 | 0.00 | 38 | 1016.3 |
| 20260502190433 | 21 | 343 | 6.4 | 12.9 | 0.00 | 0.00 | 0.00 | 39 | 1016.3 |
| 20260502190311 | 21 | 292 | 4.8 | 12.9 | 0.00 | 0.00 | 0.00 | 39 | 1016.3 |
| 20260502190244 | 21 | 337 | 4.8 | 11.3 | 0.00 | 0.00 | 0.00 | 39 | 1016.3 |
| 20260502190136 | 21 | 305 | 4.8 | 11.3 | 0.00 | 0.00 | 0.00 | 38 | 1016.3 |
| 20260502190014 | 21 | 332 | 4.8 | 11.3 | 0.00 | 0.00 | 0.00 | 39 | 1016.3 |
| 20260502185920 | 21 | 322 | 3.2 | 11.3 | 0.00 | 0.00 | 0.00 | 39 | 1016.3 |
| 20260502185825 | 21 | 298 | 3.2 | 11.3 | 0.00 | 0.00 | 0.00 | 39 | 1016.4 |
| 20260502185729 | 21 | 320 | 4.8 | 11.3 | 0.00 | 0.00 | 0.00 | 40 | 1016.5 |
| 20260502185641 | 21 | 291 | 4.8 | 11.3 | 0.00 | 0.00 | 0.00 | 40 | 1016.5 |
| 20260502185535 | 21 | 285 | 4.8 | 9.7 | 0.00 | 0.00 | 0.00 | 39 | 1016.5 |
| 20260502185444 | 21 | 276 | 4.8 | 9.7 | 0.00 | 0.00 | 0.00 | 38 | 1016.4 |
| 20260502185309 | 20 | 330 | 4.8 | 9.7 | 0.00 | 0.00 | 0.00 | 41 | 1016.5 |
| 20260502185233 | 20 | 303 | 4.8 | 9.7 | 0.00 | 0.00 | 0.00 | 42 | 1016.4 |
| 20260502185144 | 20 | 297 | 3.2 | 8.0 | 0.00 | 0.00 | 0.00 | 43 | 1016.4 |
| 20260502185017 | 20 | 316 | 3.2 | 8.0 | 0.00 | 0.00 | 0.00 | 41 | 1016.5 |
| 20260502184923 | 20 | 286 | 3.2 | 8.0 | 0.00 | 0.00 | 0.00 | 49 | 1016.5 |
| 20260502184813 | 20 | 303 | 4.8 | 8.0 | 0.00 | 0.00 | 0.00 | 45 | 1016.5 |
| 20260502184737 | 20 | 314 | 4.8 | 8.0 | 0.00 | 0.00 | 0.00 | 41 | 1016.5 |
| 20260502184620 | 20 | 309 | 3.2 | 8.0 | 0.00 | 0.00 | 0.00 | 44 | 1016.6 |
| 20260502184521 | 20 | 293 | 3.2 | 8.0 | 0.00 | 0.00 | 0.00 | 44 | 1016.6 |
| 20260502184427 | 20 | 296 | 1.6 | 8.0 | 0.00 | 0.00 | 0.00 | 46 | 1016.7 |
| 20260502184313 | 20 | 334 | 1.6 | 8.0 | 0.00 | 0.00 | 0.00 | 46 | 1016.6 |
| 20260502184212 | 19 | 349 | 3.2 | 8.0 | 0.00 | 0.00 | 0.00 | 47 | 1016.6 |
| 20260502184145 | 19 | 319 | 4.8 | 8.0 | 0.00 | 0.00 | 0.00 | 43 | 1016.6 |
| 20260502184010 | 19 | 258 | 3.2 | 6.4 | 0.00 | 0.00 | 0.00 | 43 | 1016.7 |
| 20260502183916 | 19 | 339 | 3.2 | 6.4 | 0.00 | 0.00 | 0.00 | 44 | 1016.7 |
| 20260502183829 | 19 | 345 | 3.2 | 6.4 | 0.00 | 0.00 | 0.00 | 44 | 1016.7 |
| 20260502183735 | 19 | 324 | 3.2 | 6.4 | 0.00 | 0.00 | 0.00 | 45 | 1016.7 |
| 20260502183640 | 19 | 329 | 3.2 | 6.4 | 0.00 | 0.00 | 0.00 | 45 | 1016.7 |
| 20260502183534 | 18 | 289 | 4.8 | 6.4 | 0.00 | 0.00 | 0.00 | 44 | 1016.7 |
| 20260502183419 | 18 | 309 | 3.2 | 6.4 | 0.00 | 0.00 | 0.00 | 43 | 1016.9 |
| 20260502183332 | 18 | 308 | 3.2 | 6.4 | 0.00 | 0.00 | 0.00 | 46 | 1016.9 |
| 20260502183154 | 18 | 318 | 1.6 | 6.4 | 0.00 | 0.00 | 0.00 | 42 | 1016.8 |
| 20260502183019 | 18 | 318 | 3.2 | 6.4 | 0.00 | 0.00 | 0.00 | 43 | 1016.9 |
| 20260502182924 | 18 | 322 | 3.2 | 6.4 | 0.00 | 0.00 | 0.00 | 44 | 1016.9 |
| 20260502182809 | 18 | 318 | 3.2 | 6.4 | 0.00 | 0.00 | 0.00 | 43 | 1016.8 |
| 20260502182638 | 18 | 295 | 1.6 | 4.8 | 0.00 | 0.00 | 0.00 | 42 | 1016.9 |
| 20260502182533 | 18 | 25 | 0.0 | 3.2 | 0.00 | 0.00 | 0.00 | 43 | 1017.1 |
| 20260502182444 | 18 | 24 | 1.6 | 3.2 | 0.00 | 0.00 | 0.00 | 39 | 1017.0 |
| 20260502182313 | 18 | 25 | 1.6 | 3.2 | 0.00 | 0.00 | 0.00 | 38 | 1017.0 |
| 20260502182218 | 18 | 24 | 1.6 | 3.2 | 0.00 | 0.00 | 0.00 | 38 | 1017.1 |
| 20260502182133 | 18 | 25 | 1.6 | 3.2 | 0.00 | 0.00 | 0.00 | 38 | 1017.1 |
| 20260502182027 | 18 | 24 | 1.6 | 4.8 | 0.00 | 0.00 | 0.00 | 38 | 1017.1 |
| 20260502181914 | 18 | 25 | 1.6 | 6.4 | 0.00 | 0.00 | 0.00 | 39 | 1017.1 |
| 20260502181844 | 18 | 24 | 0.0 | 6.4 | 0.00 | 0.00 | 0.00 | 39 | 1017.1 |
| 20260502181712 | 18 | 94 | 0.0 | 6.4 | 0.00 | 0.00 | 0.00 | 39 | 1017.1 |
| 20260502181628 | 18 | 94 | 1.6 | 6.4 | 0.00 | 0.00 | 0.00 | 39 | 1017.1 |
| 20260502181530 | 18 | 95 | 0.0 | 6.4 | 0.00 | 0.00 | 0.00 | 41 | 1017.1 |
| 20260502181415 | 18 | 95 | 1.6 | 6.4 | 0.00 | 0.00 | 0.00 | 43 | 1017.1 |
| 20260502181321 | 18 | 70 | 1.6 | 6.4 | 0.00 | 0.00 | 0.00 | 41 | 1017.1 |
| 20260502181222 | 18 | 93 | 3.2 | 6.4 | 0.00 | 0.00 | 0.00 | 44 | 1017.1 |
| 20260502181146 | 18 | 112 | 3.2 | 6.4 | 0.00 | 0.00 | 0.00 | 42 | 1017.1 |
| 20260502181020 | 18 | 114 | 1.6 | 4.8 | 0.00 | 0.00 | 0.00 | 45 | 1017.1 |
| 20260502180933 | 18 | 37 | 1.6 | 4.8 | 0.00 | 0.00 | 0.00 | 44 | 1017.2 |
| 20260502180838 | 18 | 37 | 1.6 | 6.4 | 0.00 | 0.00 | 0.00 | 46 | 1017.2 |
| 20260502180712 | 18 | 64 | 1.6 | 6.4 | 0.00 | 0.00 | 0.00 | 48 | 1017.2 |
| 20260502180628 | 18 | 62 | 1.6 | 6.4 | 0.00 | 0.00 | 0.00 | 47 | 1017.2 |
| 20260502180523 | 18 | 341 | 1.6 | 6.4 | 0.00 | 0.00 | 0.00 | 48 | 1017.2 |
| 20260502180427 | 18 | 359 | 1.6 | 6.4 | 0.00 | 0.00 | 0.00 | 48 | 1017.1 |
| 20260502180313 | 18 | 281 | 1.6 | 6.4 | 0.00 | 0.00 | 0.00 | 52 | 1017.1 |
| 20260502180217 | 18 | 224 | 3.2 | 6.4 | 0.00 | 0.00 | 0.00 | 45 | 1017.2 |
| 20260502180141 | 18 | 224 | 3.2 | 6.4 | 0.00 | 0.00 | 0.00 | 45 | 1017.2 |
| 20260502170512 | 16 | 13 | 1.6 | 6.4 | 0.00 | 0.00 | 0.00 | 56 | 1017.8 |
| 20260502170417 | 16 | 66 | 3.2 | 6.4 | 0.00 | 0.00 | 0.00 | 54 | 1017.8 |
| 20260502170323 | 16 | 60 | 3.2 | 6.4 | 0.00 | 0.00 | 0.00 | 55 | 1017.8 |
| 20260502170218 | 16 | 35 | 1.6 | 6.4 | 0.00 | 0.00 | 0.00 | 56 | 1017.8 |
| 20260502170134 | 16 | 354 | 1.6 | 4.8 | 0.00 | 0.00 | 0.00 | 57 | 1017.8 |
| 20260502164315 | 15 | 303 | 1.6 | 6.4 | 0.00 | 0.00 | 0.00 | 54 | 1017.7 |
| 20260502164213 | 15 | 294 | 1.6 | 6.4 | 0.00 | 0.00 | 0.00 | 53 | 1017.7 |
| 20260502164128 | 15 | 285 | 1.6 | 6.4 | 0.00 | 0.00 | 0.00 | 55 | 1017.7 |
| 20260502164022 | 15 | 318 | 3.2 | 6.4 | 0.00 | 0.00 | 0.00 | 54 | 1017.7 |
| 20260502163935 | 15 | 332 | 1.6 | 6.4 | 0.00 | 0.00 | 0.00 | 54 | 1017.7 |
| 20260502163819 | 15 | 327 | 1.6 | 6.4 | 0.00 | 0.00 | 0.00 | 53 | 1017.6 |
| 20260502163715 | 15 | 326 | 3.2 | 6.4 | 0.00 | 0.00 | 0.00 | 53 | 1017.7 |
| 20260502163630 | 15 | 307 | 3.2 | 6.4 | 0.00 | 0.00 | 0.00 | 54 | 1017.7 |
| 20260502163525 | 15 | 299 | 1.6 | 6.4 | 0.00 | 0.00 | 0.00 | 56 | 1017.7 |
| 20260502163410 | 15 | 293 | 1.6 | 4.8 | 0.00 | 0.00 | 0.00 | 55 | 1017.7 |
| 20260502163343 | 15 | 317 | 1.6 | 4.8 | 0.00 | 0.00 | 0.00 | 53 | 1017.7 |
| 20260502163238 | 15 | 322 | 0.0 | 3.2 | 0.00 | 0.00 | 0.00 | 56 | 1017.7 |
| 20260502163129 | 15 | 354 | 0.0 | 3.2 | 0.00 | 0.00 | 0.00 | 58 | 1017.7 |
| 20260502163023 | 15 | 31 | 0.0 | 3.2 | 0.00 | 0.00 | 0.00 | 53 | 1017.7 |
| 20260502162913 | 15 | 31 | 0.0 | 3.2 | 0.00 | 0.00 | 0.00 | 55 | 1017.7 |
| 20260502162825 | 15 | 31 | 1.6 | 3.2 | 0.00 | 0.00 | 0.00 | 57 | 1017.8 |
| 20260502162711 | 15 | 37 | 0.0 | 3.2 | 0.00 | 0.00 | 0.00 | 61 | 1017.7 |
| 20260502162634 | 15 | 36 | 0.0 | 3.2 | 0.00 | 0.00 | 0.00 | 58 | 1017.8 |
| 20260502162529 | 15 | 36 | 0.0 | 3.2 | 0.00 | 0.00 | 0.00 | 57 | 1017.8 |
| 20260502162417 | 15 | 36 | 1.6 | 3.2 | 0.00 | 0.00 | 0.00 | 55 | 1017.7 |
| 20260502162350 | 15 | 36 | 1.6 | 3.2 | 0.00 | 0.00 | 0.00 | 57 | 1017.8 |
| 20260502162237 | 15 | 35 | 0.0 | 3.2 | 0.00 | 0.00 | 0.00 | 61 | 1017.8 |
| 20260502162148 | 15 | 14 | 0.0 | 1.6 | 0.00 | 0.00 | 0.00 | 60 | 1017.8 |
| 20260502162021 | 15 | 318 | 0.0 | 1.6 | 0.00 | 0.00 | 0.00 | 60 | 1017.8 |
| 20260502161934 | 15 | 318 | 0.0 | 1.6 | 0.00 | 0.00 | 0.00 | 60 | 1017.9 |
| 20260502161818 | 15 | 318 | 0.0 | 1.6 | 0.00 | 0.00 | 0.00 | 60 | 1017.9 |
| 20260502161718 | 15 | 318 | 0.0 | 1.6 | 0.00 | 0.00 | 0.00 | 59 | 1018.0 |
| 20260502161629 | 15 | 344 | 0.0 | 1.6 | 0.00 | 0.00 | 0.00 | 60 | 1017.9 |
| 20260502161523 | 14 | 344 | 0.0 | 1.6 | 0.00 | 0.00 | 0.00 | 61 | 1018.0 |
| 20260502161435 | 14 | 344 | 0.0 | 1.6 | 0.00 | 0.00 | 0.00 | 57 | 1018.0 |
| 20260502161341 | 14 | 344 | 0.0 | 1.6 | 0.00 | 0.00 | 0.00 | 57 | 1017.9 |
| 20260502161237 | 14 | 344 | 0.0 | 1.6 | 0.00 | 0.00 | 0.00 | 58 | 1018.1 |
| 20260502161127 | 14 | 344 | 0.0 | 1.6 | 0.00 | 0.00 | 0.00 | 58 | 1018.0 |
| 20260502161032 | 13 | 344 | 0.0 | 1.6 | 0.00 | 0.00 | 0.00 | 59 | 1018.0 |
| 20260502160918 | 13 | 344 | 0.0 | 3.2 | 0.00 | 0.00 | 0.00 | 56 | 1018.0 |
| 20260502160824 | 13 | 344 | 0.0 | 3.2 | 0.00 | 0.00 | 0.00 | 56 | 1018.0 |
| 20260502160738 | 13 | 344 | 0.0 | 3.2 | 0.00 | 0.00 | 0.00 | 56 | 1017.9 |
| 20260502160628 | 13 | 344 | 0.0 | 3.2 | 0.00 | 0.00 | 0.00 | 56 | 1018.1 |
| 20260502160523 | 13 | 344 | 1.6 | 3.2 | 0.00 | 0.00 | 0.00 | 57 | 1018.0 |
| 20260502160412 | 13 | 344 | 0.0 | 3.2 | 0.00 | 0.00 | 0.00 | 59 | 1018.1 |
| 20260502160325 | 13 | 344 | 0.0 | 3.2 | 0.00 | 0.00 | 0.00 | 62 | 1018.1 |
| 20260502160218 | 13 | 344 | 0.0 | 4.8 | 0.00 | 0.00 | 0.00 | 63 | 1018.1 |
| 20260502160151 | 13 | 344 | 0.0 | 4.8 | 0.00 | 0.00 | 0.00 | 63 | 1018.1 |
| 20260502152309 | 12 | 348 | 1.6 | 3.2 | 0.00 | 0.00 | 0.00 | 67 | 1018.1 |
| 20260502152141 | 12 | 348 | 1.6 | 3.2 | 0.00 | 0.00 | 0.00 | 68 | 1018.0 |
| 20260502152033 | 12 | 348 | 1.6 | 3.2 | 0.00 | 0.00 | 0.00 | 68 | 1018.0 |
| 20260502151918 | 12 | 348 | 1.6 | 4.8 | 0.00 | 0.00 | 0.00 | 67 | 1018.0 |
| 20260502151824 | 12 | 348 | 1.6 | 4.8 | 0.00 | 0.00 | 0.00 | 67 | 1018.0 |
| 20260502151709 | 12 | 348 | 1.6 | 4.8 | 0.00 | 0.00 | 0.00 | 67 | 1018.0 |
| 20260502151658 | 12 | 348 | 1.6 | 4.8 | 0.00 | 0.00 | 0.00 | 67 | 1018.0 |
| 20260502151511 | 12 | 348 | 0.0 | 4.8 | 0.00 | 0.00 | 0.00 | 67 | 1018.0 |
| 20260502151417 | 12 | 348 | 1.6 | 4.8 | 0.00 | 0.00 | 0.00 | 68 | 1018.0 |
| 20260502151323 | 12 | 348 | 1.6 | 4.8 | 0.00 | 0.00 | 0.00 | 69 | 1018.0 |
| 20260502151227 | 12 | 348 | 1.6 | 4.8 | 0.00 | 0.00 | 0.00 | 69 | 1018.0 |
| 20260502151121 | 11 | 348 | 1.6 | 4.8 | 0.00 | 0.00 | 0.00 | 67 | 1018.0 |
| 20260502151027 | 11 | 308 | 1.6 | 4.8 | 0.00 | 0.00 | 0.00 | 67 | 1017.9 |
| 20260502150912 | 11 | 308 | 1.6 | 4.8 | 0.00 | 0.00 | 0.00 | 67 | 1017.9 |
| 20260502150840 | 11 | 308 | 1.6 | 4.8 | 0.00 | 0.00 | 0.00 | 66 | 1018.0 |
| 20260502150714 | 11 | 308 | 1.6 | 4.8 | 0.00 | 0.00 | 0.00 | 67 | 1018.0 |
| 20260502150647 | 11 | 309 | 1.6 | 3.2 | 0.00 | 0.00 | 0.00 | 67 | 1018.0 |
| 20260502150528 | 11 | 309 | 1.6 | 3.2 | 0.00 | 0.00 | 0.00 | 67 | 1018.0 |
| 20260502150417 | 11 | 309 | 1.6 | 3.2 | 0.00 | 0.00 | 0.00 | 67 | 1018.0 |
| 20260502150323 | 11 | 309 | 1.6 | 3.2 | 0.00 | 0.00 | 0.00 | 68 | 1018.0 |
| 20260502150209 | 11 | 309 | 1.6 | 3.2 | 0.00 | 0.00 | 0.00 | 68 | 1018.0 |
| 20260502150131 | 11 | 321 | 1.6 | 3.2 | 0.00 | 0.00 | 0.00 | 69 | 1018.0 |
| 20260502140122 | 7 | 261 | 0.0 | 3.2 | 0.00 | 0.00 | 0.00 | 73 | 1017.7 |
| 20260502130711 | 5 | 76 | 0.0 | 1.6 | 0.00 | 0.00 | 0.00 | 72 | 1017.4 |
| 20260502130622 | 5 | 76 | 0.0 | 1.6 | 0.00 | 0.00 | 0.00 | 72 | 1017.4 |
| 20260502130520 | 5 | 76 | 0.0 | 1.6 | 0.00 | 0.00 | 0.00 | 72 | 1017.3 |
| 20260502130433 | 5 | 76 | 0.0 | 1.6 | 0.00 | 0.00 | 0.00 | 72 | 1017.4 |
| 20260502130339 | 5 | 76 | 0.0 | 1.6 | 0.00 | 0.00 | 0.00 | 72 | 1017.5 |
| 20260502130213 | 5 | 76 | 0.0 | 1.6 | 0.00 | 0.00 | 0.00 | 72 | 1017.5 |
| 20260502130125 | 5 | 76 | 0.0 | 1.6 | 0.00 | 0.00 | 0.00 | 72 | 1017.5 |
| 20260502123714 | 5 | 75 | 0.0 | 1.6 | 0.00 | 0.00 | 0.00 | 73 | 1017.2 |
| 20260502123647 | 5 | 76 | 0.0 | 1.6 | 0.00 | 0.00 | 0.00 | 73 | 1017.2 |
| 20260502123541 | 5 | 76 | 0.0 | 1.6 | 0.00 | 0.00 | 0.00 | 74 | 1017.1 |
| 20260502123426 | 5 | 76 | 0.0 | 1.6 | 0.00 | 0.00 | 0.00 | 75 | 1017.2 |
| 20260502123315 | 5 | 75 | 0.0 | 1.6 | 0.00 | 0.00 | 0.00 | 75 | 1017.2 |
| 20260502123238 | 5 | 75 | 0.0 | 1.6 | 0.00 | 0.00 | 0.00 | 75 | 1017.3 |
| 20260502123129 | 5 | 76 | 0.0 | 1.6 | 0.00 | 0.00 | 0.00 | 74 | 1017.2 |
| 20260502123023 | 5 | 75 | 0.0 | 1.6 | 0.00 | 0.00 | 0.00 | 74 | 1017.3 |
| 20260502122909 | 5 | 76 | 0.0 | 6.4 | 0.00 | 0.00 | 0.00 | 74 | 1017.2 |
| 20260502122815 | 5 | 76 | 0.0 | 6.4 | 0.00 | 0.00 | 0.00 | 74 | 1017.3 |
| 20260502122714 | 5 | 76 | 0.0 | 6.4 | 0.00 | 0.00 | 0.00 | 74 | 1017.2 |
| 20260502122626 | 5 | 75 | 0.0 | 6.4 | 0.00 | 0.00 | 0.00 | 74 | 1017.3 |
| 20260502122521 | 5 | 76 | 0.0 | 6.4 | 0.00 | 0.00 | 0.00 | 73 | 1017.3 |
| 20260502122433 | 5 | 75 | 0.0 | 6.4 | 0.00 | 0.00 | 0.00 | 73 | 1017.2 |
| 20260502122319 | 5 | 76 | 0.0 | 6.4 | 0.00 | 0.00 | 0.00 | 72 | 1017.1 |
| 20260502122218 | 5 | 76 | 1.6 | 6.4 | 0.00 | 0.00 | 0.00 | 72 | 1017.2 |
| 20260502122129 | 5 | 76 | 1.6 | 6.4 | 0.00 | 0.00 | 0.00 | 72 | 1017.2 |
| 20260502122024 | 5 | 87 | 1.6 | 6.4 | 0.00 | 0.00 | 0.00 | 73 | 1017.3 |
| 20260502121909 | 5 | 209 | 0.0 | 6.4 | 0.00 | 0.00 | 0.00 | 73 | 1017.2 |
| 20260502121815 | 5 | 208 | 0.0 | 6.4 | 0.00 | 0.00 | 0.00 | 73 | 1017.2 |
| 20260502121715 | 5 | 208 | 1.6 | 6.4 | 0.00 | 0.00 | 0.00 | 73 | 1017.1 |
| 20260502121649 | 5 | 209 | 1.6 | 6.4 | 0.00 | 0.00 | 0.00 | 73 | 1017.2 |
| 20260502121528 | 5 | 83 | 0.0 | 6.4 | 0.00 | 0.00 | 0.00 | 72 | 1017.2 |
| 20260502121414 | 5 | 83 | 0.0 | 6.4 | 0.00 | 0.00 | 0.00 | 72 | 1017.3 |
| 20260502121319 | 5 | 82 | 1.6 | 6.4 | 0.00 | 0.00 | 0.00 | 71 | 1017.3 |
| 20260502121216 | 5 | 83 | 1.6 | 6.4 | 0.00 | 0.00 | 0.00 | 72 | 1017.2 |
| 20260502121139 | 5 | 83 | 1.6 | 6.4 | 0.00 | 0.00 | 0.00 | 73 | 1017.2 |
| 20260502121017 | 5 | 218 | 0.0 | 4.8 | 0.00 | 0.00 | 0.00 | 73 | 1017.1 |
| 20260502120922 | 5 | 217 | 0.0 | 4.8 | 0.00 | 0.00 | 0.00 | 73 | 1017.1 |
| 20260502120835 | 5 | 218 | 1.6 | 4.8 | 0.00 | 0.00 | 0.00 | 73 | 1017.1 |
| 20260502120711 | 5 | 217 | 0.0 | 4.8 | 0.00 | 0.00 | 0.00 | 73 | 1017.1 |
| 20260502120636 | 5 | 217 | 0.0 | 4.8 | 0.00 | 0.00 | 0.00 | 73 | 1017.1 |
| 20260502120514 | 5 | 142 | 1.6 | 4.8 | 0.00 | 0.00 | 0.00 | 73 | 1017.3 |
| 20260502120447 | 5 | 141 | 3.2 | 4.8 | 0.00 | 0.00 | 0.00 | 73 | 1017.1 |
| 20260502120312 | 6 | 141 | 3.2 | 4.8 | 0.00 | 0.00 | 0.00 | 73 | 1017.2 |
| 20260502120218 | 6 | 144 | 1.6 | 4.8 | 0.00 | 0.00 | 0.00 | 73 | 1017.2 |
| 20260502120140 | 6 | 156 | 0.0 | 3.2 | 0.00 | 0.00 | 0.00 | 73 | 1017.2 |
| 20260502115922 | 6 | 155 | 1.6 | 3.2 | 0.00 | 0.00 | 0.00 | 73 | 1017.1 |
| 20260502115835 | 6 | 155 | 1.6 | 3.2 | 0.00 | 0.00 | 0.00 | 72 | 1017.1 |
| 20260502115720 | 6 | 155 | 3.2 | 3.2 | 0.00 | 0.00 | 0.00 | 72 | 1017.1 |
| 20260502115636 | 6 | 155 | 1.6 | 3.2 | 0.00 | 0.00 | 0.00 | 72 | 1017.1 |
| 20260502115538 | 6 | 172 | 1.6 | 3.2 | 0.00 | 0.00 | 0.00 | 71 | 1017.1 |
| 20260502115419 | 6 | 172 | 0.0 | 1.6 | 0.00 | 0.00 | 0.00 | 71 | 1017.1 |
| 20260502115352 | 6 | 172 | 0.0 | 1.6 | 0.00 | 0.00 | 0.00 | 70 | 1017.2 |
| 20260502115232 | 6 | 172 | 1.6 | 1.6 | 0.00 | 0.00 | 0.00 | 70 | 1017.2 |
| 20260502115143 | 6 | 172 | 1.6 | 1.6 | 0.00 | 0.00 | 0.00 | 71 | 1017.1 |
| 20260502115016 | 6 | 216 | 0.0 | 1.6 | 0.00 | 0.00 | 0.00 | 71 | 1017.1 |
| 20260502114949 | 6 | 216 | 0.0 | 0.0 | 0.00 | 0.00 | 0.00 | 70 | 1017.1 |
| 20260502114834 | 6 | 216 | 0.0 | 0.0 | 0.00 | 0.00 | 0.00 | 70 | 1017.1 |
| 20260502114737 | 6 | 216 | 0.0 | 0.0 | 0.00 | 0.00 | 0.00 | 70 | 1017.0 |
| 20260502114620 | 6 | 216 | 0.0 | 0.0 | 0.00 | 0.00 | 0.00 | 70 | 1017.1 |
| 20260502114411 | 6 | 216 | 0.0 | 3.2 | 0.00 | 0.00 | 0.00 | 69 | 1017.2 |
| 20260502114344 | 6 | 216 | 0.0 | 3.2 | 0.00 | 0.00 | 0.00 | 69 | 1017.2 |
| 20260502114230 | 6 | 216 | 0.0 | 3.2 | 0.00 | 0.00 | 0.00 | 68 | 1017.0 |
| 20260502114142 | 6 | 216 | 0.0 | 3.2 | 0.00 | 0.00 | 0.00 | 68 | 1017.0 |
| 20260502114015 | 6 | 216 | 0.0 | 3.2 | 0.00 | 0.00 | 0.00 | 68 | 1017.1 |
| 20260502113940 | 6 | 216 | 0.0 | 3.2 | 0.00 | 0.00 | 0.00 | 68 | 1017.1 |
| 20260502113809 | 7 | 216 | 0.0 | 3.2 | 0.00 | 0.00 | 0.00 | 67 | 1017.0 |
| 20260502113712 | 7 | 216 | 0.0 | 3.2 | 0.00 | 0.00 | 0.00 | 67 | 1017.0 |
| 20260502113623 | 7 | 216 | 1.6 | 3.2 | 0.00 | 0.00 | 0.00 | 67 | 1017.0 |
| 20260502113517 | 7 | 216 | 0.0 | 3.2 | 0.00 | 0.00 | 0.00 | 67 | 1017.1 |
| 20260502113423 | 7 | 216 | 0.0 | 1.6 | 0.00 | 0.00 | 0.00 | 67 | 1017.0 |
| 20260502113337 | 7 | 216 | 0.0 | 0.0 | 0.00 | 0.00 | 0.00 | 67 | 1017.0 |
| 20260502113216 | 7 | 216 | 0.0 | 0.0 | 0.00 | 0.00 | 0.00 | 67 | 1017.0 |
| 20260502113148 | 7 | 216 | 0.0 | 0.0 | 0.00 | 0.00 | 0.00 | 67 | 1017.0 |
| 20260502113021 | 7 | 216 | 0.0 | 0.0 | 0.00 | 0.00 | 0.00 | 67 | 1017.0 |
| 20260502112926 | 7 | 216 | 0.0 | 0.0 | 0.00 | 0.00 | 0.00 | 67 | 1017.0 |
| 20260502112812 | 7 | 216 | 0.0 | 0.0 | 0.00 | 0.00 | 0.00 | 68 | 1017.0 |
| 20260502112735 | 7 | 216 | 0.0 | 0.0 | 0.00 | 0.00 | 0.00 | 68 | 1017.1 |
| 20260502112623 | 7 | 216 | 0.0 | 0.0 | 0.00 | 0.00 | 0.00 | 68 | 1017.0 |
| 20260502112545 | 7 | 216 | 0.0 | 0.0 | 0.00 | 0.00 | 0.00 | 68 | 1017.0 |
| 20260502112409 | 7 | 216 | 0.0 | 0.0 | 0.00 | 0.00 | 0.00 | 68 | 1017.0 |
| 20260502112342 | 7 | 216 | 0.0 | 0.0 | 0.00 | 0.00 | 0.00 | 68 | 1017.1 |
| 20260502112218 | 7 | 216 | 0.0 | 0.0 | 0.00 | 0.00 | 0.00 | 68 | 1017.1 |
| 20260502112120 | 7 | 216 | 0.0 | 0.0 | 0.00 | 0.00 | 0.00 | 68 | 1017.1 |
| 20260502112014 | 7 | 216 | 0.0 | 0.0 | 0.00 | 0.00 | 0.00 | 68 | 1017.1 |
| 20260502111924 | 7 | 216 | 0.0 | 0.0 | 0.00 | 0.00 | 0.00 | 68 | 1017.1 |
| 20260502111836 | 7 | 216 | 0.0 | 0.0 | 0.00 | 0.00 | 0.00 | 68 | 1017.1 |
| 20260502111714 | 7 | 216 | 0.0 | 0.0 | 0.00 | 0.00 | 0.00 | 68 | 1017.1 |
| 20260502111658 | 7 | 216 | 0.0 | 0.0 | 0.00 | 0.00 | 0.00 | 67 | 1017.1 |
| 20260502111511 | 7 | 216 | 0.0 | 0.0 | 0.00 | 0.00 | 0.00 | 67 | 1017.1 |
| 20260502111444 | 7 | 216 | 0.0 | 0.0 | 0.00 | 0.00 | 0.00 | 67 | 1017.1 |
| 20260502111313 | 7 | 216 | 0.0 | 0.0 | 0.00 | 0.00 | 0.00 | 67 | 1017.1 |
| 20260502111230 | 7 | 216 | 0.0 | 0.0 | 0.00 | 0.00 | 0.00 | 67 | 1017.1 |
| 20260502111142 | 7 | 216 | 0.0 | 0.0 | 0.00 | 0.00 | 0.00 | 67 | 1017.1 |
| 20260502111022 | 7 | 216 | 0.0 | 0.0 | 0.00 | 0.00 | 0.00 | 67 | 1017.1 |
| 20260502110928 | 7 | 216 | 0.0 | 0.0 | 0.00 | 0.00 | 0.00 | 67 | 1017.1 |
| 20260502110813 | 7 | 216 | 0.0 | 0.0 | 0.00 | 0.00 | 0.00 | 67 | 1017.1 |
| 20260502110735 | 7 | 216 | 0.0 | 0.0 | 0.00 | 0.00 | 0.00 | 67 | 1017.1 |
| 20260502110629 | 7 | 216 | 0.0 | 0.0 | 0.00 | 0.00 | 0.00 | 66 | 1017.1 |
| 20260502110523 | 7 | 216 | 0.0 | 0.0 | 0.00 | 0.00 | 0.00 | 66 | 1017.1 |
| 20260502110409 | 7 | 216 | 0.0 | 0.0 | 0.00 | 0.00 | 0.00 | 65 | 1017.1 |
| 20260502110147 | 7 | 216 | 0.0 | 0.0 | 0.00 | 0.00 | 0.00 | 66 | 1017.1 |
| 20260502110023 | 7 | 216 | 0.0 | 3.2 | 0.00 | 0.00 | 0.00 | 66 | 1017.1 |
| 20260502105929 | 7 | 216 | 0.0 | 3.2 | 0.00 | 0.00 | 0.00 | 66 | 1017.1 |
| 20260502105814 | 7 | 216 | 0.0 | 3.2 | 0.00 | 0.00 | 0.00 | 66 | 1017.1 |
| 20260502105710 | 7 | 216 | 0.0 | 3.2 | 0.00 | 0.00 | 0.00 | 65 | 1017.1 |
| 20260502105642 | 7 | 216 | 0.0 | 3.2 | 0.00 | 0.00 | 0.00 | 65 | 1017.1 |
| 20260502105538 | 7 | 216 | 0.0 | 3.2 | 0.00 | 0.00 | 0.00 | 65 | 1017.1 |
| 20260502105434 | 7 | 216 | 0.0 | 3.2 | 0.00 | 0.00 | 0.00 | 65 | 1017.1 |
| 20260502105315 | 7 | 216 | 1.6 | 3.2 | 0.00 | 0.00 | 0.00 | 65 | 1017.2 |
| 20260502105211 | 7 | 216 | 1.6 | 3.2 | 0.00 | 0.00 | 0.00 | 65 | 1017.1 |
| 20260502105122 | 7 | 216 | 1.6 | 3.2 | 0.00 | 0.00 | 0.00 | 66 | 1017.2 |
| 20260502105017 | 7 | 216 | 0.0 | 3.2 | 0.00 | 0.00 | 0.00 | 66 | 1017.2 |
| 20260502104929 | 7 | 145 | 0.0 | 0.0 | 0.00 | 0.00 | 0.00 | 66 | 1017.1 |
| 20260502104818 | 7 | 145 | 0.0 | 0.0 | 0.00 | 0.00 | 0.00 | 66 | 1017.2 |
| 20260502104714 | 7 | 145 | 0.0 | 0.0 | 0.00 | 0.00 | 0.00 | 66 | 1017.2 |
| 20260502104647 | 7 | 145 | 0.0 | 0.0 | 0.00 | 0.00 | 0.00 | 66 | 1017.2 |
| 20260502104520 | 7 | 145 | 0.0 | 0.0 | 0.00 | 0.00 | 0.00 | 66 | 1017.2 |
| 20260502104426 | 7 | 145 | 0.0 | 0.0 | 0.00 | 0.00 | 0.00 | 67 | 1017.2 |
| 20260502104330 | 7 | 145 | 0.0 | 3.2 | 0.00 | 0.00 | 0.00 | 67 | 1017.2 |
| 20260502104219 | 7 | 145 | 0.0 | 3.2 | 0.00 | 0.00 | 0.00 | 67 | 1017.2 |
| 20260502104140 | 7 | 145 | 0.0 | 3.2 | 0.00 | 0.00 | 0.00 | 67 | 1017.2 |
| 20260502104036 | 7 | 145 | 0.0 | 3.2 | 0.00 | 0.00 | 0.00 | 67 | 1017.2 |
| 20260502103913 | 7 | 145 | 0.0 | 3.2 | 0.00 | 0.00 | 0.00 | 68 | 1017.2 |
| 20260502103818 | 7 | 145 | 0.0 | 3.2 | 0.00 | 0.00 | 0.00 | 68 | 1017.1 |
| 20260502103713 | 7 | 145 | 0.0 | 3.2 | 0.00 | 0.00 | 0.00 | 68 | 1017.2 |
| 20260502103629 | 7 | 145 | 1.6 | 3.2 | 0.00 | 0.00 | 0.00 | 68 | 1017.1 |
| 20260502103523 | 7 | 145 | 1.6 | 3.2 | 0.00 | 0.00 | 0.00 | 68 | 1017.2 |
| 20260502103409 | 7 | 141 | 0.0 | 3.2 | 0.00 | 0.00 | 0.00 | 68 | 1017.2 |
| 20260502103322 | 7 | 122 | 0.0 | 1.6 | 0.00 | 0.00 | 0.00 | 68 | 1017.1 |
| 20260502103217 | 7 | 122 | 0.0 | 0.0 | 0.00 | 0.00 | 0.00 | 68 | 1017.1 |
| 20260502103133 | 7 | 121 | 0.0 | 0.0 | 0.00 | 0.00 | 0.00 | 68 | 1017.2 |
| 20260502103045 | 7 | 122 | 0.0 | 0.0 | 0.00 | 0.00 | 0.00 | 68 | 1017.2 |
| 20260502102909 | 7 | 122 | 0.0 | 0.0 | 0.00 | 0.00 | 0.00 | 68 | 1017.2 |
| 20260502102822 | 7 | 121 | 0.0 | 0.0 | 0.00 | 0.00 | 0.00 | 68 | 1017.1 |
| 20260502102718 | 7 | 122 | 0.0 | 0.0 | 0.00 | 0.00 | 0.00 | 68 | 1017.1 |
| 20260502102621 | 7 | 122 | 0.0 | 0.0 | 0.00 | 0.00 | 0.00 | 68 | 1017.1 |
| 20260502102528 | 7 | 122 | 0.0 | 0.0 | 0.00 | 0.00 | 0.00 | 67 | 1017.1 |
| 20260502102412 | 7 | 122 | 0.0 | 1.6 | 0.00 | 0.00 | 0.00 | 67 | 1017.1 |
| 20260502102338 | 7 | 121 | 0.0 | 4.8 | 0.00 | 0.00 | 0.00 | 67 | 1017.1 |
| 20260502102213 | 7 | 122 | 0.0 | 4.8 | 0.00 | 0.00 | 0.00 | 67 | 1017.1 |
| 20260502102124 | 7 | 122 | 0.0 | 4.8 | 0.00 | 0.00 | 0.00 | 67 | 1017.2 |
| 20260502102027 | 7 | 121 | 0.0 | 4.8 | 0.00 | 0.00 | 0.00 | 66 | 1017.1 |
| 20260502101935 | 7 | 122 | 0.0 | 4.8 | 0.00 | 0.00 | 0.00 | 66 | 1017.1 |
| 20260502101820 | 7 | 121 | 0.0 | 4.8 | 0.00 | 0.00 | 0.00 | 65 | 1017.1 |
| 20260502101716 | 7 | 122 | 0.0 | 4.8 | 0.00 | 0.00 | 0.00 | 64 | 1017.2 |
| 20260502101626 | 7 | 121 | 1.6 | 4.8 | 0.00 | 0.00 | 0.00 | 64 | 1017.1 |
| 20260502101521 | 8 | 122 | 1.6 | 4.8 | 0.00 | 0.00 | 0.00 | 63 | 1017.2 |
| 20260502101434 | 8 | 122 | 1.6 | 4.8 | 0.00 | 0.00 | 0.00 | 62 | 1017.1 |
| 20260502101344 | 8 | 230 | 0.0 | 0.0 | 0.00 | 0.00 | 0.00 | 62 | 1017.1 |
| 20260502101220 | 8 | 229 | 0.0 | 0.0 | 0.00 | 0.00 | 0.00 | 62 | 1017.1 |
| 20260502101121 | 8 | 231 | 0.0 | 0.0 | 0.00 | 0.00 | 0.00 | 62 | 1017.1 |
| 20260502101015 | 8 | 230 | 0.0 | 0.0 | 0.00 | 0.00 | 0.00 | 62 | 1017.0 |
| 20260502100921 | 8 | 230 | 0.0 | 0.0 | 0.00 | 0.00 | 0.00 | 62 | 1017.1 |
| 20260502100826 | 8 | 231 | 0.0 | 0.0 | 0.00 | 0.00 | 0.00 | 61 | 1017.1 |
| 20260502100715 | 8 | 229 | 0.0 | 0.0 | 0.00 | 0.00 | 0.00 | 61 | 1017.1 |
| 20260502100640 | 8 | 230 | 0.0 | 0.0 | 0.00 | 0.00 | 0.00 | 61 | 1017.1 |
| 20260502100530 | 8 | 231 | 0.0 | 0.0 | 0.00 | 0.00 | 0.00 | 61 | 1017.1 |
| 20260502100437 | 8 | 230 | 0.0 | 0.0 | 0.00 | 0.00 | 0.00 | 61 | 1017.1 |
| 20260502100322 | 8 | 231 | 0.0 | 0.0 | 0.00 | 0.00 | 0.00 | 61 | 1017.0 |
| 20260502100246 | 9 | 230 | 0.0 | 0.0 | 0.00 | 0.00 | 0.00 | 61 | 1017.0 |
| 20260502100131 | 9 | 231 | 0.0 | 0.0 | 0.00 | 0.00 | 0.00 | 61 | 1017.1 |
| 20260502091426 | 8 | 229 | 0.0 | 4.8 | 0.00 | 0.00 | 0.00 | 58 | 1017.0 |
| 20260502091314 | 8 | 229 | 0.0 | 4.8 | 0.00 | 0.00 | 0.00 | 58 | 1016.9 |
| 20260502091210 | 8 | 231 | 1.6 | 4.8 | 0.00 | 0.00 | 0.00 | 59 | 1017.0 |
| 20260502091143 | 8 | 231 | 1.6 | 4.8 | 0.00 | 0.00 | 0.00 | 59 | 1017.0 |
| 20260502091015 | 8 | 231 | 1.6 | 4.8 | 0.00 | 0.00 | 0.00 | 59 | 1017.0 |
| 20260502090947 | 8 | 243 | 1.6 | 3.2 | 0.00 | 0.00 | 0.00 | 60 | 1017.0 |
| 20260502090832 | 8 | 243 | 0.0 | 3.2 | 0.00 | 0.00 | 0.00 | 60 | 1017.0 |
| 20260502090738 | 8 | 243 | 1.6 | 3.2 | 0.00 | 0.00 | 0.00 | 60 | 1016.9 |
| 20260502090646 | 8 | 243 | 1.6 | 3.2 | 0.00 | 0.00 | 0.00 | 60 | 1016.9 |
| 20260502090541 | 8 | 240 | 1.6 | 3.2 | 0.00 | 0.00 | 0.00 | 61 | 1016.9 |
| 20260502090453 | 8 | 240 | 1.6 | 3.2 | 0.00 | 0.00 | 0.00 | 61 | 1016.9 |
| 20260502090318 | 8 | 240 | 1.6 | 3.2 | 0.00 | 0.00 | 0.00 | 61 | 1016.9 |
| 20260502090213 | 8 | 240 | 0.0 | 1.6 | 0.00 | 0.00 | 0.00 | 62 | 1017.0 |
| 20260502090125 | 8 | 239 | 0.0 | 1.6 | 0.00 | 0.00 | 0.00 | 62 | 1017.0 |
| 20260502071512 | 10 | 154 | 0.0 | 3.2 | 0.00 | 0.00 | 0.00 | 57 | 1016.9 |
| 20260502071424 | 10 | 162 | 1.6 | 3.2 | 0.00 | 0.00 | 0.00 | 57 | 1016.9 |
| 20260502071310 | 10 | 162 | 1.6 | 3.2 | 0.00 | 0.00 | 0.00 | 57 | 1016.9 |
| 20260502071215 | 10 | 162 | 0.0 | 3.2 | 0.00 | 0.00 | 0.00 | 57 | 1016.8 |
| 20260502071200 | 10 | 162 | 0.0 | 1.6 | 0.00 | 0.00 | 0.00 | 58 | 1016.8 |
| 20260502071013 | 10 | 137 | 0.0 | 0.0 | 0.00 | 0.00 | 0.00 | 58 | 1016.9 |
| 20260502070923 | 10 | 137 | 0.0 | 0.0 | 0.00 | 0.00 | 0.00 | 58 | 1016.9 |
| 20260502070835 | 10 | 138 | 0.0 | 0.0 | 0.00 | 0.00 | 0.00 | 59 | 1016.9 |
| 20260502070721 | 10 | 137 | 0.0 | 1.6 | 0.00 | 0.00 | 0.00 | 59 | 1016.9 |
| 20260502070635 | 10 | 138 | 0.0 | 1.6 | 0.00 | 0.00 | 0.00 | 59 | 1016.9 |
| 20260502070517 | 10 | 137 | 0.0 | 1.6 | 0.00 | 0.00 | 0.00 | 59 | 1016.9 |